GFSSW_sfc_thetae_000.txt.gz
Theta_e
327 327 327 328 327 327 327 327 328 327 327 327 327 327 325 324 322 313 303 312 316 326 319 302 300 300 298 299 300 296 289 286 287 287 290 291 290 291 291 290 290 293 292 293 301
326 326 326 326 326 326 326 326 327 327 327 327 326 326 324 322 309 304 317 326 327 323 302 300 299 299 295 295 297 292 287 289 292 290 291 291 290 289 291 290 290 291 294 294 301
325 325 325 325 325 325 325 325 325 326 326 326 326 326 323 317 300 300 322 326 326 313 302 300 299 296 293 293 292 291 289 290 293 294 292 291 290 291 287 290 291 292 293 292 298
324 323 324 323 324 324 324 324 325 325 326 326 326 325 322 308 292 303 322 323 322 306 301 298 297 294 291 290 292 289 292 292 295 293 292 291 290 291 290 296 296 293 293 291 294
322 320 322 322 322 323 323 323 325 325 325 326 325 322 308 299 298 304 318 311 303 301 298 296 295 294 291 291 291 288 291 292 293 293 292 292 292 290 291 296 296 293 293 291 291
322 321 320 320 320 321 321 322 324 324 325 325 322 320 302 294 303 303 302 303 301 299 296 297 294 295 292 291 290 290 291 292 292 292 291 290 290 288 292 293 293 293 293 293 291
321 319 319 319 319 319 319 321 323 324 324 324 320 311 301 299 301 301 302 300 300 298 296 297 297 295 293 291 292 290 288 289 291 291 291 288 287 287 293 292 292 293 294 295 294
319 317 317 316 317 318 319 321 323 323 324 322 318 306 297 306 300 305 303 301 300 298 298 297 297 295 292 293 291 288 286 285 291 291 291 291 289 294 295 295 297 295 292 293 296
317 316 315 315 315 316 318 321 322 323 323 321 306 301 296 310 305 306 300 298 299 298 297 298 295 291 291 287 286 286 284 284 287 291 289 291 290 296 296 294 294 296 294 295 295
315 314 314 313 314 316 319 321 321 316 312 310 306 296 301 300 304 306 301 298 296 295 295 294 291 288 287 287 282 283 282 284 285 289 288 288 289 294 298 295 297 297 294 294 295
313 313 312 312 314 317 314 308 301 297 302 298 298 298 301 305 304 302 297 296 296 295 289 290 288 285 286 286 287 285 283 284 290 293 287 287 290 293 297 297 296 291 297 296 295
312 311 311 312 314 318 309 303 300 300 296 301 302 301 303 302 295 298 298 294 295 289 290 289 285 289 289 288 287 285 284 285 290 291 289 286 289 293 295 295 294 294 293 291 293
311 310 311 312 315 308 302 300 303 303 293 295 300 300 300 296 292 295 294 292 290 288 288 286 289 290 289 287 286 285 284 284 284 289 291 284 284 287 291 292 294 292 291 293 291
309 309 310 312 303 303 301 303 301 300 286 288 296 297 296 294 291 294 293 293 291 288 287 287 289 288 287 286 286 283 286 287 285 282 278 285 276 284 288 289 291 289 290 290 290
309 308 309 312 301 301 302 303 298 294 281 292 295 298 298 294 294 295 293 293 288 289 288 285 287 286 286 286 287 286 288 285 283 281 280 281 276 280 287 285 288 285 286 286 288
308 308 308 304 299 301 303 299 295 288 282 287 295 293 291 292 293 295 293 294 290 286 285 286 288 287 286 288 288 289 285 284 283 278 274 278 277 279 283 285 283 284 285 287 288
308 308 306 305 295 302 301 293 286 283 289 285 288 291 288 287 290 290 288 284 284 282 281 285 285 287 290 284 285 286 281 274 270 269 273 278 276 278 284 286 283 283 285 286 288
308 308 305 306 302 301 293 287 280 288 286 289 290 288 284 286 286 287 284 280 286 284 281 278 276 283 284 284 282 281 281 273 268 268 270 277 272 278 282 283 283 284 285 286 288
307 301 302 302 303 301 288 280 285 284 285 288 286 280 283 287 283 281 280 282 280 282 279 278 278 285 286 285 283 279 278 281 273 271 268 272 277 280 280 280 282 282 284 285 286
297 297 297 303 302 298 284 284 285 284 292 291 282 282 279 282 279 280 279 283 282 282 283 279 275 281 281 282 283 277 279 272 272 261 260 269 270 270 275 277 280 280 281 282 283
298 287 296 303 301 293 281 281 285 291 293 289 284 281 283 281 279 279 278 280 280 279 280 278 277 277 277 275 274 274 273 273 273 270 263 262 266 277 277 278 278 280 281 281 283
296 283 298 302 289 287 284 286 294 291 292 288 288 287 283 281 279 280 281 278 281 280 274 276 275 270 272 278 277 276 273 273 267 265 268 268 267 279 279 280 281 280 280 281 282
293 290 300 301 283 284 289 291 291 289 289 287 285 284 281 280 278 280 279 281 281 278 276 278 274 265 269 273 273 273 275 275 274 273 268 264 266 279 279 279 279 278 279 280 281
293 286 294 297 292 287 288 287 289 290 289 287 284 281 279 278 279 277 278 280 281 280 284 282 276 273 266 270 273 271 273 275 273 268 268 268 270 274 276 275 277 278 279 280 281
294 289 291 289 289 290 290 287 286 284 287 284 280 281 280 276 276 276 278 278 280 282 281 278 271 273 273 273 274 273 273 273 271 272 268 270 270 272 274 276 277 278 279 280 280
289 288 291 290 290 290 289 285 284 285 285 281 280 280 279 277 278 275 276 276 276 278 277 278 271 273 270 274 273 271 273 273 273 272 270 270 270 276 277 278 277 278 279 279 279
295 293 292 288 286 287 286 287 287 288 285 283 282 279 277 278 279 279 280 280 279 277 276 275 273 265 261 271 271 263 269 271 271 271 271 267 272 276 275 277 277 278 279 279 280

GFSSW_sfc_thetae_003.txt.gz
Theta_e
326 326 326 326 326 326 326 326 327 327 327 327 327 327 325 324 322 310 302 309 318 329 320 303 303 301 301 302 302 299 292 288 290 290 293 295 294 296 296 295 295 296 296 299 304
325 325 325 325 325 325 325 325 326 326 326 326 327 326 324 323 306 302 317 327 328 324 302 301 300 299 297 298 299 295 290 291 293 293 294 294 293 294 295 294 294 294 296 297 303
324 322 323 323 324 323 324 323 324 325 326 326 326 326 323 317 300 300 324 327 326 316 302 301 300 299 297 296 296 295 291 293 294 295 295 294 293 294 292 293 295 296 297 297 299
322 321 322 322 322 322 322 322 324 324 326 325 326 325 322 307 291 302 322 321 320 304 301 299 299 297 294 293 294 292 294 293 296 295 294 293 294 293 293 297 298 297 295 294 294
321 321 320 319 320 320 320 321 324 324 325 325 326 323 308 298 297 303 317 311 302 301 298 297 296 296 294 293 293 291 292 293 293 293 293 292 293 292 292 297 296 295 295 297 297
320 319 317 317 318 319 319 320 323 324 324 326 325 321 300 295 303 302 303 303 300 299 297 298 296 296 295 292 291 291 291 292 292 292 292 292 292 292 294 294 295 297 299 298 297
319 317 316 316 317 317 317 320 323 323 324 326 323 310 301 299 301 301 304 299 299 298 296 297 297 297 295 293 293 291 289 291 293 292 292 290 289 289 294 294 298 297 296 296 296
317 315 315 315 315 316 318 320 322 322 324 323 318 305 298 306 301 308 304 301 300 298 298 297 297 296 293 294 291 289 289 287 293 292 294 294 289 294 297 297 296 295 295 295 296
315 314 314 314 314 316 318 320 321 323 323 321 305 300 295 310 305 306 301 298 298 298 296 298 296 292 292 289 287 288 285 285 288 291 291 292 289 295 298 294 294 295 295 294 294
314 313 313 313 314 316 319 320 320 314 310 308 305 296 301 299 304 304 301 297 296 295 296 295 291 289 288 289 283 285 283 285 285 290 289 289 290 294 295 293 294 293 292 293 292
313 312 312 313 315 318 313 305 298 297 300 298 297 297 300 305 303 300 297 296 295 294 290 291 287 286 287 287 287 286 284 284 288 291 289 289 289 291 291 292 291 290 291 291 290
312 311 311 312 315 316 308 303 298 299 296 299 301 301 303 302 294 297 298 294 293 289 291 290 284 289 290 289 287 287 284 285 289 290 289 287 287 290 289 290 289 288 290 288 289
311 311 311 312 315 308 302 299 302 302 292 294 298 299 299 296 292 294 295 292 291 289 287 286 288 290 289 288 287 285 284 284 284 288 288 285 283 285 289 290 288 288 289 288 288
310 310 310 313 302 302 299 302 301 299 287 289 294 296 295 294 290 294 293 293 291 287 287 286 289 288 287 286 286 284 286 286 284 281 277 284 275 283 286 286 285 284 284 286 287
310 309 309 310 297 300 301 302 298 293 282 292 294 298 296 292 292 293 294 293 288 286 285 281 285 285 285 285 287 286 287 285 283 281 278 279 276 280 284 281 282 282 284 285 288
309 308 309 303 299 300 302 298 294 289 282 288 293 292 290 290 292 294 292 293 289 286 285 285 287 286 286 287 286 287 283 283 281 278 274 277 274 276 280 280 280 282 283 284 287
308 308 306 304 295 301 301 291 288 283 290 286 286 290 286 286 288 289 286 285 283 278 279 284 284 287 287 282 285 281 279 273 270 270 271 276 273 275 280 283 280 280 282 283 285
308 308 305 305 301 300 291 289 281 288 288 288 288 287 285 285 285 285 281 279 283 282 280 277 275 283 284 284 281 278 280 271 264 266 269 275 271 278 279 281 282 282 283 283 285
306 300 301 301 302 299 288 280 285 286 287 286 287 280 281 286 281 279 279 280 279 280 278 277 276 283 281 282 281 277 273 280 273 262 265 271 275 279 279 279 281 281 282 282 284
298 296 295 302 302 295 284 285 285 287 291 290 283 283 277 283 281 277 277 282 280 280 280 279 274 279 281 281 278 276 277 272 271 258 258 267 270 271 275 276 279 279 280 281 282
297 285 294 302 300 292 281 281 285 287 293 289 285 282 281 282 280 278 276 279 280 278 279 276 275 275 276 273 271 274 272 273 272 269 262 261 268 275 276 277 277 279 280 280 281
298 284 296 301 290 287 283 285 292 291 290 290 287 286 283 282 279 278 279 279 280 279 274 275 275 269 271 275 276 275 273 273 266 265 267 267 266 278 278 279 279 278 279 280 281
294 290 304 302 287 284 287 289 291 289 289 289 286 287 283 281 279 280 279 280 280 278 276 277 273 265 269 272 273 272 274 275 273 272 266 264 266 278 278 278 278 277 279 280 281
293 286 295 299 294 288 285 286 288 291 289 288 284 283 281 279 279 279 278 279 281 278 284 280 274 272 267 270 272 271 273 274 272 267 267 268 269 273 275 275 277 278 279 280 280
294 289 294 289 290 289 289 289 287 286 288 286 281 282 281 278 277 277 278 278 279 281 279 278 271 274 274 275 273 272 272 273 271 271 268 269 270 272 274 275 277 279 279 278 277
291 289 292 290 290 291 290 287 286 286 286 283 281 282 282 279 280 277 277 277 277 278 277 277 272 273 270 273 273 271 273 273 272 272 271 270 269 276 277 278 277 277 276 275 276
296 295 293 291 288 289 289 288 287 288 288 288 284 282 279 281 281 281 281 281 279 277 276 275 273 267 263 270 269 264 270 271 271 271 270 267 272 275 275 276 276 274 274 275 272

GFSSW_sfc_thetae_006.txt.gz
Theta_e
326 325 325 326 325 325 325 325 325 326 326 327 327 327 327 324 323 312 306 312 319 329 323 309 310 308 309 309 309 307 303 299 298 298 301 303 301 303 303 302 303 303 303 306 307
325 323 324 323 323 323 323 324 324 325 326 326 326 326 325 323 311 308 318 328 330 328 309 308 307 307 307 305 307 305 302 299 302 302 302 303 301 301 301 304 303 304 308 307 307
322 322 322 321 321 322 322 323 323 325 325 326 326 326 323 321 308 306 324 327 327 319 309 308 307 307 305 304 303 302 301 300 301 302 302 302 302 301 301 301 303 301 303 305 307
322 321 320 320 320 320 321 321 323 324 325 325 326 325 322 313 300 308 321 322 321 309 307 306 308 305 303 302 301 299 301 300 301 301 300 300 301 300 299 303 303 304 305 308 304
321 319 318 318 318 319 320 321 323 323 324 325 326 324 314 308 305 309 317 314 308 307 305 304 304 304 301 302 301 299 300 299 299 299 299 299 299 298 300 303 305 306 306 304 300
319 317 316 317 317 318 319 321 323 323 324 325 326 322 310 304 309 308 310 308 307 306 305 306 303 304 303 300 299 299 299 299 298 298 297 298 298 297 301 304 303 304 303 300 298
318 316 315 315 316 317 319 321 323 322 324 325 323 313 310 306 309 311 309 305 305 305 304 304 304 303 303 301 300 297 296 300 299 299 296 298 297 295 302 303 300 302 300 298 298
316 315 314 314 315 317 319 321 321 322 323 323 320 312 306 312 310 314 311 307 306 305 304 303 304 302 300 300 299 296 297 293 299 298 296 299 292 300 302 299 299 299 297 296 296
315 313 314 314 314 316 319 320 320 322 323 321 313 311 304 314 310 311 309 303 303 304 303 302 303 300 300 299 297 297 292 292 293 299 297 297 294 299 300 297 297 296 295 294 295
314 313 313 313 315 317 318 319 320 317 313 310 309 307 308 305 309 309 308 303 303 302 302 303 302 300 300 297 290 292 292 292 291 296 296 295 295 298 298 296 294 294 293 293 293
313 313 313 313 315 319 316 310 305 307 306 304 303 302 304 310 309 305 303 303 303 303 298 300 294 295 295 295 295 294 292 291 293 296 294 293 293 294 295 293 292 291 290 290 292
313 312 312 312 315 317 313 307 304 304 300 304 305 305 307 307 300 303 305 301 300 297 300 296 290 296 295 295 294 293 290 290 293 295 292 291 290 292 293 289 289 290 289 289 290
312 312 311 313 315 313 307 305 307 308 299 300 303 304 305 303 298 300 302 299 298 296 296 291 291 295 294 293 291 291 289 290 288 291 292 290 288 289 290 290 289 289 289 289 289
311 311 310 312 306 310 305 308 308 308 298 298 299 303 301 300 297 300 299 299 298 294 293 291 295 293 292 291 290 287 291 289 287 285 282 288 279 287 289 286 286 287 287 288 288
310 309 310 309 304 305 306 308 306 302 292 298 300 304 300 297 298 299 300 298 294 292 290 289 291 290 290 289 291 290 289 287 286 284 284 284 281 286 290 283 283 285 287 287 288
309 308 310 306 307 307 307 305 302 297 290 295 300 297 297 295 296 299 297 299 296 292 292 290 293 292 292 291 290 288 286 287 286 284 278 281 278 281 282 280 282 285 286 286 286
309 309 308 307 300 308 308 301 298 291 298 294 293 295 293 293 293 293 291 291 289 284 285 289 290 291 291 288 289 286 284 278 277 279 278 281 277 280 281 282 283 283 284 285 286
309 308 308 308 309 308 303 300 291 296 296 294 294 293 292 291 291 290 287 287 288 289 287 284 281 289 289 285 283 284 283 277 269 273 275 279 274 280 283 284 285 285 284 285 285
307 307 307 308 308 307 297 290 296 295 295 292 293 291 288 290 289 288 287 286 288 289 285 282 281 285 284 286 285 283 280 282 275 273 271 276 279 283 283 282 283 283 283 283 284
303 302 300 308 309 302 292 292 292 296 295 294 292 293 290 289 289 286 285 288 286 286 286 285 279 283 283 284 282 281 283 276 277 268 267 273 274 276 278 279 280 280 281 282 284
303 292 300 308 306 300 287 288 290 292 296 293 292 292 290 289 289 286 285 285 287 283 287 284 281 279 280 279 279 278 276 276 275 273 268 267 273 280 279 280 279 280 281 282 284
298 289 304 307 296 296 290 289 292 292 295 294 293 292 291 291 286 283 284 286 287 284 281 281 280 275 277 279 280 279 278 276 271 269 272 271 270 282 281 281 281 280 281 283 284
294 293 306 305 289 289 291 291 293 293 293 292 291 292 291 287 284 286 286 284 284 283 280 281 277 274 272 276 278 276 276 277 276 274 269 267 272 282 282 280 280 280 282 283 283
294 288 297 299 298 292 293 291 290 295 294 294 291 289 284 282 283 282 282 281 283 282 284 282 277 276 274 276 276 273 275 276 275 270 270 271 273 277 278 278 279 281 281 281 281
296 291 293 290 291 294 294 295 292 290 292 292 286 287 285 281 281 281 282 280 282 283 283 280 274 276 276 277 276 276 274 275 273 273 269 272 272 276 278 277 279 280 281 279 279
300 292 293 292 298 292 291 291 290 292 289 287 285 285 284 285 284 280 281 280 280 280 279 280 274 274 272 275 275 273 275 275 275 274 274 274 273 279 279 280 279 279 277 277 277
299 297 295 299 294 292 294 292 293 293 291 292 287 284 282 286 287 285 286 286 283 279 278 277 274 271 272 272 272 269 273 274 275 275 274 270 275 278 277 278 278 277 278 275 274

GFSSW_sfc_thetae_009.txt.gz
Theta_e
325 324 323 323 323 322 323 323 324 325 326 326 327 327 326 325 323 318 308 314 319 330 326 313 312 312 312 312 312 311 304 300 300 300 302 306 304 308 308 304 306 306 306 309 311
324 323 322 321 322 322 322 323 323 325 325 326 326 326 325 324 315 311 318 328 329 328 311 310 309 311 310 308 310 307 303 301 304 304 303 305 304 304 303 304 305 305 309 310 309
323 321 321 320 321 321 322 322 323 324 325 325 326 326 324 323 311 309 324 326 327 320 311 310 310 310 308 308 306 306 301 303 303 304 305 303 303 304 302 301 303 302 305 307 304
322 320 319 319 319 320 321 322 323 324 324 325 326 326 323 318 302 311 321 324 322 312 311 310 310 307 305 304 306 301 304 303 304 304 302 301 303 302 302 303 305 305 306 303 302
320 318 318 317 318 318 320 322 323 324 323 325 326 325 319 310 308 312 322 318 313 311 309 308 306 306 303 304 304 302 303 302 302 302 302 302 301 300 302 305 304 306 303 301 300
319 317 316 316 316 318 320 322 323 323 323 325 326 321 314 306 312 312 313 311 310 310 309 309 306 307 304 303 302 303 302 302 301 301 301 299 300 299 303 305 302 302 300 300 299
318 316 315 316 315 317 319 321 322 322 323 325 323 316 313 308 312 319 312 308 308 308 307 307 306 305 306 303 304 301 299 302 300 300 299 301 298 298 303 302 300 300 299 298 298
316 315 315 315 315 317 319 321 320 322 322 323 321 316 308 314 315 315 314 311 309 308 307 306 307 305 303 304 302 299 299 296 300 300 299 299 293 300 303 300 299 299 297 297 297
315 314 315 314 315 317 319 319 320 321 322 321 317 313 305 313 312 314 313 306 307 308 307 304 306 303 304 300 298 299 294 295 296 300 298 297 294 301 303 299 297 296 295 295 295
315 314 314 314 315 317 318 320 321 317 314 313 312 309 309 307 312 311 310 306 306 306 306 306 305 300 302 297 290 291 291 294 294 297 297 296 295 298 299 297 296 294 293 292 293
314 314 314 313 315 318 317 314 312 312 310 306 306 306 307 312 311 307 307 306 306 304 301 304 297 296 298 296 295 295 294 293 295 297 294 292 293 295 296 294 293 292 291 290 291
314 313 313 313 315 317 314 307 306 307 301 307 307 307 310 309 303 305 308 302 301 299 303 301 297 298 297 297 296 294 292 291 294 296 293 291 291 294 294 291 292 290 289 289 290
313 313 312 313 315 314 309 307 311 312 302 304 305 306 307 305 302 302 305 302 300 299 299 295 298 296 295 295 293 292 290 290 289 292 293 291 289 289 290 290 290 290 290 290 289
313 312 311 313 309 311 308 310 313 312 299 300 301 305 303 303 300 304 303 300 301 296 296 294 296 295 294 292 292 288 291 289 288 287 283 290 280 289 288 288 287 288 288 288 288
312 311 309 311 307 306 308 312 310 307 292 299 302 305 303 300 300 301 302 300 296 297 294 293 291 291 290 291 292 290 289 288 288 287 286 286 283 287 291 288 284 286 287 287 288
312 310 310 309 309 310 311 310 306 298 291 298 302 300 299 298 299 301 300 301 299 294 294 293 295 294 294 294 292 290 289 288 288 286 279 285 282 284 286 283 283 285 286 286 287
311 309 309 309 304 312 312 307 298 292 300 297 297 298 297 298 298 297 296 295 293 290 291 292 292 293 292 290 292 289 286 280 281 282 281 283 279 283 284 283 283 284 284 286 287
310 308 310 310 312 312 311 300 292 298 300 297 297 296 295 297 297 293 293 293 294 292 288 286 285 290 292 289 286 285 284 279 273 276 279 282 276 281 285 285 285 285 285 286 285
307 312 310 311 312 312 299 293 294 299 301 296 295 294 297 293 292 292 292 293 293 293 287 286 284 288 285 288 287 285 281 284 278 279 273 278 282 283 284 284 284 284 284 284 284
311 305 309 311 312 307 294 293 298 301 297 297 295 299 294 297 292 292 293 294 290 291 291 289 282 287 283 285 284 283 285 277 278 270 270 277 278 279 280 281 282 282 282 283 284
304 299 306 311 311 299 290 294 298 302 299 297 297 297 297 294 295 294 294 293 292 288 289 288 284 282 283 281 282 279 278 278 278 277 271 271 276 281 280 281 280 281 282 283 284
301 297 308 311 295 296 293 297 297 296 297 297 295 297 296 297 295 293 293 294 292 289 284 286 283 279 281 282 282 280 279 279 274 273 274 273 272 284 283 282 282 282 282 283 284
296 298 306 307 292 294 296 294 295 295 295 295 293 295 298 293 290 293 294 287 290 287 285 283 280 276 278 278 279 277 279 280 279 276 273 270 273 283 283 284 282 281 282 283 282
297 294 298 300 299 297 296 295 294 297 296 297 297 298 294 289 293 292 288 284 287 287 284 286 280 279 279 282 278 275 277 278 277 272 273 273 275 280 281 281 281 281 282 282 281
298 294 298 292 293 295 298 297 295 296 296 297 293 294 292 288 291 287 288 281 283 284 283 282 277 280 280 280 279 277 276 277 274 276 273 275 276 279 280 280 280 281 282 280 280
301 297 294 295 301 296 296 294 294 296 298 294 291 295 292 289 291 291 286 283 281 282 282 282 278 277 274 277 277 275 277 277 277 276 276 276 275 281 282 281 280 280 280 279 280
308 299 298 299 296 295 294 295 296 298 299 300 298 295 291 291 289 287 288 287 287 282 280 279 278 274 272 275 273 271 275 276 277 278 276 273 277 282 279 278 279 279 279 279 278

GFSSW_sfc_thetae_012.txt.gz
Theta_e
325 324 323 323 323 322 323 323 324 325 326 327 327 328 327 326 325 319 309 314 318 330 326 314 311 312 311 312 312 309 299 296 296 296 297 300 299 303 302 297 301 303 301 300 302
324 323 322 321 321 322 322 323 324 325 325 326 326 327 327 325 318 311 319 327 329 328 311 308 307 309 307 307 308 302 299 298 300 299 298 300 299 298 298 299 298 300 301 302 300
323 321 321 320 321 321 322 323 324 324 325 325 326 327 325 322 314 310 324 328 327 322 311 309 309 310 306 306 303 302 298 300 301 302 301 299 298 299 295 296 295 297 296 298 297
322 320 320 320 320 320 321 323 324 324 324 325 326 326 322 320 304 311 324 327 327 318 311 309 308 305 302 301 304 297 302 302 303 301 300 297 298 296 298 297 300 298 298 297 296
320 319 318 318 319 318 320 322 323 323 323 325 326 325 320 311 307 312 323 318 313 311 308 307 304 303 300 300 301 299 300 301 301 299 298 299 297 295 297 299 300 299 298 295 295
319 318 317 317 317 317 319 322 323 323 323 325 326 321 317 306 313 317 311 311 309 309 308 306 304 304 302 301 298 300 300 299 300 299 298 297 295 296 298 299 297 297 295 294 294
318 317 316 317 316 316 319 320 322 322 323 324 324 318 314 308 311 316 312 308 308 307 307 306 305 303 304 301 301 298 294 297 297 298 297 297 293 293 298 298 296 295 293 294 294
317 316 316 316 315 316 319 320 320 322 322 324 323 317 309 314 313 314 314 311 309 308 308 306 306 304 301 302 299 295 294 291 297 298 297 295 288 295 299 296 295 293 291 292 293
317 315 316 316 315 316 318 319 320 321 321 321 318 313 306 315 312 313 312 306 307 307 306 305 305 302 300 296 292 295 288 289 293 297 295 293 289 296 297 296 293 290 289 290 291
316 315 316 315 314 316 318 320 322 318 317 313 312 309 309 308 312 311 309 307 306 305 305 303 301 296 296 292 284 285 285 288 289 293 292 291 291 293 294 294 291 288 287 287 287
316 315 315 314 314 317 317 314 307 310 308 305 306 305 307 312 311 308 307 305 306 302 299 302 293 292 293 292 291 290 289 288 292 293 289 289 289 291 292 292 288 286 286 285 285
316 315 314 313 314 317 314 306 305 307 299 307 307 307 310 309 303 305 306 301 301 296 301 297 293 295 295 294 293 291 288 287 290 294 290 289 288 292 291 290 289 286 285 284 284
315 314 313 313 314 314 307 307 312 312 300 304 306 307 307 307 302 302 303 301 298 296 296 291 296 296 293 292 290 288 287 286 286 289 290 287 284 287 287 288 287 287 286 285 284
314 314 312 312 310 308 307 310 313 311 296 299 300 305 303 304 299 304 302 300 299 296 293 292 294 293 292 291 289 285 288 288 287 283 278 285 276 283 283 284 285 285 283 282 282
314 313 311 310 306 305 308 312 310 306 285 299 301 306 304 300 300 301 302 299 295 296 292 292 289 288 288 289 291 288 288 286 285 283 281 281 277 281 284 282 282 282 282 282 282
314 311 309 311 308 310 311 310 306 295 285 297 302 300 298 298 299 300 300 299 297 291 292 292 293 291 289 293 291 290 287 286 285 282 275 280 280 280 282 285 281 282 281 282 282
313 310 307 308 304 311 311 307 293 288 299 295 296 298 297 296 297 296 296 292 290 288 288 290 289 291 291 287 290 287 282 276 275 274 274 280 276 280 281 282 282 281 280 280 281
312 308 310 309 311 311 310 296 286 295 296 297 296 295 293 296 295 294 291 289 294 291 286 283 282 288 290 286 282 283 281 275 269 271 274 278 273 279 283 283 283 283 282 282 281
308 309 310 310 310 310 299 289 290 294 299 296 294 292 294 293 291 289 289 290 292 291 285 285 284 285 285 286 285 283 278 281 275 267 267 273 278 281 282 281 282 281 281 280 280
309 308 309 310 310 306 292 291 294 299 297 296 292 296 291 292 288 289 290 292 290 291 290 286 281 285 282 283 282 279 283 275 275 265 265 273 275 276 277 279 279 278 278 279 281
305 301 305 310 309 297 286 289 295 300 299 295 294 293 294 293 293 291 291 292 291 287 287 284 283 280 281 279 278 276 275 276 277 276 268 266 272 278 278 279 277 277 280 279 280
303 297 306 309 294 294 290 294 298 297 297 296 294 295 294 294 293 291 290 293 290 287 282 285 283 278 280 279 280 278 278 277 271 271 272 271 272 283 282 280 280 279 280 280 280
297 301 306 306 289 291 295 295 297 295 294 293 292 295 295 292 288 291 293 287 289 286 284 282 279 277 278 276 278 275 276 277 277 276 271 270 272 281 281 280 280 278 278 279 280
303 292 297 298 298 294 293 293 292 295 294 294 294 295 292 290 291 289 289 285 287 286 287 287 280 280 282 282 278 274 275 276 276 272 273 273 275 279 281 280 279 277 278 278 279
301 296 297 288 291 293 295 294 293 292 294 295 291 292 291 288 289 288 290 282 283 285 283 282 277 279 280 279 279 278 276 276 274 275 272 275 275 279 281 278 277 277 279 279 278
297 296 295 296 295 292 293 292 292 294 295 292 292 294 292 289 291 288 290 288 282 281 280 282 276 279 276 278 277 274 276 276 277 277 275 276 275 282 283 280 276 278 278 277 277
305 305 300 296 294 294 293 293 293 296 297 298 297 294 290 292 292 288 289 290 287 281 280 280 277 274 273 274 274 270 274 275 276 278 277 272 277 281 279 277 276 277 277 277 276

GFSSW_sfc_thetae_018.txt.gz
Theta_e
325 324 324 324 323 323 322 324 325 325 325 325 326 327 326 325 323 309 303 310 316 330 326 312 306 305 304 304 304 301 293 290 289 291 291 294 294 295 295 293 293 294 293 295 296
324 323 323 323 323 323 323 323 324 325 325 325 325 326 326 324 311 305 318 325 331 329 306 302 301 303 300 300 301 297 291 292 293 293 292 294 293 294 293 291 290 291 293 294 292
323 322 322 322 322 323 322 323 323 324 324 324 325 326 324 319 305 304 323 330 329 326 309 303 302 302 299 298 297 295 290 294 296 296 296 294 293 294 292 289 290 290 290 290 290
322 321 321 321 321 322 321 322 323 323 324 324 324 325 323 311 296 306 326 328 328 311 307 304 302 298 295 295 298 292 296 296 298 297 295 294 294 293 292 291 294 292 291 289 288
320 320 320 320 321 321 320 321 322 323 323 323 324 324 313 303 302 308 321 316 307 306 303 301 298 297 294 294 296 293 295 296 296 296 294 295 292 293 290 291 293 292 290 288 287
318 319 319 319 320 320 319 320 322 322 322 323 324 321 306 298 307 312 307 306 304 304 302 301 298 299 295 296 293 294 295 296 296 295 294 293 292 294 292 291 291 290 288 287 288
318 319 318 318 319 320 318 319 322 322 322 323 324 315 305 301 306 309 306 304 303 302 302 300 300 298 297 294 297 294 291 293 293 294 293 293 290 291 293 291 290 288 287 288 288
318 319 318 318 319 319 318 319 320 322 323 323 323 311 300 308 307 309 307 304 303 302 303 301 301 299 296 296 295 290 289 287 293 294 294 291 287 292 293 290 288 287 285 288 288
317 318 318 318 318 318 317 318 320 322 321 320 311 307 298 312 307 309 305 301 302 302 301 302 301 296 295 291 287 287 284 285 287 294 291 290 287 291 292 290 287 285 286 287 285
318 318 318 318 318 318 317 319 319 317 314 311 307 300 302 302 307 307 304 302 300 300 301 299 295 291 290 287 284 283 282 283 283 289 289 288 288 290 291 289 288 285 284 283 282
318 318 318 318 318 318 314 302 301 300 301 299 298 300 302 307 306 304 302 300 301 298 294 296 291 289 291 288 287 286 284 283 285 290 288 288 289 291 290 288 284 282 282 281 282
319 318 317 317 318 317 304 296 298 299 294 299 300 302 305 304 298 301 301 296 296 294 293 293 289 293 293 290 288 286 285 283 287 288 287 286 286 289 290 289 287 284 281 281 281
319 317 317 317 316 306 299 299 307 304 292 296 301 301 303 302 298 298 297 296 293 292 292 290 292 292 290 287 286 285 284 283 284 285 285 283 281 286 285 286 286 285 283 281 281
318 317 316 315 305 300 300 305 307 303 287 291 295 300 299 299 294 300 298 296 294 293 291 290 291 290 288 287 288 283 285 285 284 281 277 281 276 280 282 283 282 282 280 280 280
318 317 314 313 296 299 302 307 304 298 276 291 297 302 300 295 296 296 298 295 293 293 292 291 287 287 286 287 288 285 285 284 282 280 277 278 276 279 280 279 280 280 279 279 279
317 316 311 308 299 302 305 302 298 287 279 291 296 294 293 294 295 296 295 295 293 289 288 290 289 288 288 289 288 288 285 283 280 278 273 278 277 276 277 282 281 280 279 279 279
317 315 307 305 298 305 304 297 283 280 289 290 292 294 292 291 292 293 291 288 289 286 285 286 286 287 289 285 287 285 280 277 274 271 275 276 275 283 282 282 284 281 279 279 279
317 313 307 306 305 304 299 291 279 284 288 293 292 291 290 292 291 291 288 287 289 288 283 283 282 285 288 285 284 283 281 277 271 271 278 277 275 279 279 280 284 283 280 278 278
314 305 306 305 305 303 289 282 284 287 292 292 290 286 287 290 290 288 286 286 290 289 288 281 281 283 283 284 284 281 278 281 275 262 266 274 277 281 278 277 277 278 278 278 278
308 307 305 307 305 296 284 287 288 293 294 292 287 290 286 289 287 286 285 288 289 290 289 286 281 281 280 282 280 281 282 275 274 269 266 274 275 279 275 275 276 276 277 277 278
307 299 301 306 302 290 285 285 289 294 295 292 289 288 289 288 287 284 287 289 290 286 286 283 284 279 279 278 280 276 277 277 277 278 272 271 279 279 279 279 276 277 278 277 278
303 293 300 306 294 287 288 287 292 291 294 293 291 291 290 290 286 286 287 291 290 287 284 285 281 278 278 279 279 279 279 280 274 273 276 274 278 280 281 281 280 278 278 278 279
298 293 302 301 288 289 287 290 292 290 291 291 290 292 292 289 286 289 291 291 288 288 284 284 280 274 278 276 276 276 276 279 278 278 275 273 278 280 279 278 280 277 277 279 278
295 288 296 298 295 289 289 289 289 292 292 291 291 291 290 288 291 287 287 286 286 286 292 290 281 281 281 283 279 275 275 277 279 276 278 278 280 284 283 278 276 277 278 277 277
298 291 293 288 290 292 291 289 288 288 291 292 290 290 290 287 288 287 288 282 282 287 284 284 279 279 284 285 280 282 283 276 277 279 278 281 282 286 288 284 278 278 277 276 276
299 295 293 287 290 291 291 288 288 288 289 289 289 290 291 288 289 286 290 283 285 280 279 280 278 279 279 282 280 279 282 281 281 281 281 281 281 288 289 282 276 277 277 277 276
307 301 298 294 288 288 288 289 289 292 292 293 292 291 289 291 294 294 291 290 289 282 278 277 277 277 278 280 278 275 280 280 282 284 282 276 282 287 284 278 276 276 277 278 277

GFSSW_sfc_thetae_021.txt.gz
Theta_e
325 325 325 325 324 324 323 324 325 325 325 325 326 326 326 325 322 306 302 309 315 330 324 307 304 303 302 303 302 298 291 288 288 290 290 293 292 293 293 291 290 292 291 293 295
324 323 324 324 323 324 324 324 324 324 325 325 325 326 325 324 307 303 317 325 331 329 304 301 300 301 299 299 299 296 290 291 292 291 292 293 293 294 292 289 288 289 292 292 291
320 322 322 323 323 323 323 323 323 323 324 324 324 325 324 318 302 301 325 329 328 325 306 303 301 301 297 297 295 293 289 293 294 294 295 293 291 293 291 289 289 288 289 289 288
319 320 321 321 322 323 323 322 323 323 323 323 324 324 321 308 294 305 327 327 325 309 305 302 300 296 294 293 296 292 294 295 297 296 294 292 293 292 291 292 293 292 290 288 287
318 318 321 320 321 322 323 322 322 323 323 323 323 323 310 301 302 306 320 315 305 305 302 300 297 295 292 293 295 292 293 295 295 295 293 294 292 292 292 289 292 290 289 287 286
317 317 320 320 320 321 322 322 321 322 323 323 324 321 305 296 306 310 306 304 303 303 300 300 296 297 295 295 293 293 294 294 295 294 293 292 290 291 290 289 288 289 287 286 286
318 316 318 320 320 321 321 321 321 321 322 322 323 313 303 301 305 308 306 302 302 302 300 299 299 297 296 293 295 293 291 293 292 293 292 292 289 290 290 289 287 286 286 286 286
318 317 317 319 320 320 320 320 320 321 322 322 322 309 298 306 305 307 304 303 303 301 301 300 300 298 294 295 293 290 289 287 291 292 292 291 286 291 290 288 286 285 284 286 287
318 318 318 319 319 319 319 319 319 321 321 321 309 303 296 311 305 307 303 300 300 300 299 302 300 294 293 289 287 286 284 285 288 292 290 289 287 290 290 289 287 285 285 286 285
318 318 318 318 319 319 318 319 318 316 313 310 306 301 300 300 305 306 302 301 298 298 299 298 294 291 289 288 284 285 283 283 283 287 288 287 288 290 289 288 287 286 285 285 283
318 319 319 318 319 320 313 301 300 297 300 296 295 298 300 305 305 302 301 299 298 296 295 294 291 288 291 289 288 285 283 282 284 288 287 287 288 292 289 288 286 284 284 285 282
318 319 319 318 319 318 302 296 298 298 294 297 298 299 303 302 298 300 300 295 294 291 293 292 290 292 292 289 287 285 284 283 286 287 287 285 285 288 290 288 289 287 285 285 281
317 318 318 317 317 305 298 297 305 302 292 294 300 299 301 302 297 297 298 295 292 292 291 290 291 292 290 287 286 284 283 283 284 284 284 282 279 284 286 286 287 290 287 285 282
317 317 318 315 303 297 299 304 305 301 284 288 294 298 299 298 294 298 297 295 292 292 291 290 291 289 287 287 286 282 286 285 283 281 277 281 277 280 283 285 283 285 284 284 281
316 317 318 310 297 297 301 305 302 295 274 290 295 300 298 294 294 294 296 294 292 292 291 290 287 286 286 287 287 286 285 283 282 280 277 277 275 278 280 281 285 282 282 282 281
314 317 313 309 301 299 304 300 296 285 277 287 294 293 292 293 293 294 293 294 292 290 287 289 289 288 288 287 286 287 283 282 278 277 273 278 277 276 278 282 283 281 282 280 280
314 316 308 305 301 303 303 295 283 278 287 287 290 292 290 290 290 292 290 288 288 285 285 286 286 286 288 284 286 284 281 277 275 272 276 276 274 283 286 286 284 282 280 280 280
314 315 309 306 304 303 296 290 278 283 285 291 292 290 289 291 289 289 288 286 289 288 283 284 284 285 287 286 284 281 283 279 271 271 277 276 275 281 283 281 280 282 282 280 279
314 308 307 305 304 300 288 280 283 286 288 291 289 286 286 289 289 287 286 286 290 290 288 282 282 282 283 283 284 281 278 282 277 262 267 276 277 282 280 278 277 280 279 278 279
309 307 305 307 304 296 286 287 286 291 291 291 287 289 285 287 286 286 285 288 289 290 290 288 283 280 280 281 280 280 282 277 274 267 265 273 276 280 282 280 276 276 277 278 279
308 299 302 307 302 295 288 287 288 292 294 291 287 285 287 287 287 284 286 288 289 287 287 285 285 280 280 279 280 277 277 277 277 276 271 268 278 282 283 283 276 277 279 278 278
304 293 299 306 295 291 288 287 291 289 293 292 290 290 289 289 287 286 286 291 291 288 286 285 283 278 278 277 278 280 281 281 277 273 272 273 280 282 282 283 279 278 279 278 278
298 297 299 301 287 288 286 288 291 288 290 290 289 291 291 289 286 287 290 292 290 289 285 286 281 274 278 277 276 275 278 280 278 277 277 274 279 280 280 279 279 278 277 278 278
297 290 296 297 295 289 287 288 287 291 291 289 288 290 288 287 291 288 286 288 288 288 294 292 283 282 281 281 277 275 276 278 280 276 280 280 281 286 287 284 278 277 277 277 278
298 293 294 288 290 292 289 287 287 287 290 291 288 289 288 286 286 286 289 284 283 287 286 286 283 281 286 287 281 282 283 276 276 280 279 283 283 287 289 290 289 287 278 277 278
298 296 292 290 289 290 291 288 287 288 288 287 287 288 290 287 288 286 289 287 287 280 281 280 281 280 281 283 281 281 284 284 281 282 282 283 282 290 292 292 290 282 278 278 277
307 305 298 294 291 289 288 288 289 291 291 292 290 289 287 289 293 294 291 291 290 286 278 277 277 275 279 281 280 278 283 284 285 286 285 281 285 290 289 285 282 279 278 278 277

GFSSW_sfc_thetae_024.txt.gz
Theta_e
322 324 325 325 325 325 325 325 324 324 325 325 325 326 326 325 322 305 300 309 313 329 324 305 302 302 301 301 300 297 290 287 288 288 291 292 292 291 291 291 289 290 290 292 293
320 321 324 324 324 324 325 325 324 324 324 325 325 326 325 324 304 301 316 325 328 328 303 301 299 301 299 298 298 294 289 290 291 291 291 292 292 293 291 288 288 288 290 291 291
319 319 321 323 323 324 325 325 323 323 324 324 324 325 324 318 301 299 323 327 326 324 305 301 300 299 296 296 294 292 288 292 293 294 294 292 290 293 290 288 290 288 289 288 287
318 318 318 321 322 323 324 325 323 323 323 323 323 324 321 306 293 303 326 325 323 309 303 300 299 295 293 292 294 293 293 293 296 295 293 291 292 290 291 292 291 291 291 288 286
317 317 316 318 321 322 323 324 323 322 322 323 323 322 311 302 301 306 321 314 303 303 300 298 297 293 291 291 293 292 292 294 294 294 293 292 292 292 291 289 290 290 289 287 286
318 318 317 317 320 322 322 323 323 322 322 323 323 320 306 296 305 307 303 302 301 301 298 299 296 296 294 293 292 291 293 293 293 293 292 291 289 290 289 287 287 288 287 286 286
318 319 319 319 319 321 321 322 322 321 322 323 323 312 300 300 304 305 304 300 300 300 299 298 298 296 294 291 294 291 290 292 290 292 292 291 289 289 289 287 286 286 285 286 285
317 318 318 319 319 320 321 321 321 320 322 322 322 307 298 305 305 305 302 301 301 300 300 299 299 297 293 293 291 289 288 286 290 291 291 289 286 292 288 287 285 284 283 285 286
317 317 319 319 319 319 320 320 319 321 322 321 308 302 297 310 303 305 301 299 299 299 298 303 299 293 292 289 287 286 284 284 288 290 289 288 287 290 288 287 286 285 284 285 285
316 316 318 319 319 319 319 319 317 315 312 309 305 300 299 299 303 304 300 299 297 297 298 297 293 291 288 288 282 284 282 283 283 287 287 287 287 292 288 286 287 286 285 285 285
316 316 318 319 319 320 312 299 298 294 298 297 295 296 298 303 303 301 299 298 297 294 293 293 290 288 290 290 289 286 283 283 284 287 285 286 287 291 291 287 286 285 284 284 286
315 316 318 319 319 318 300 296 296 296 292 296 297 297 301 301 296 299 299 294 293 290 292 290 288 292 291 289 287 284 283 283 285 285 286 285 285 288 291 291 288 289 286 285 285
314 315 317 318 317 303 297 297 304 300 291 293 298 298 299 302 296 296 297 293 290 289 290 288 290 292 290 286 286 284 282 282 284 283 283 281 282 282 287 287 288 289 290 287 286
314 314 316 316 303 296 298 302 303 300 282 287 293 297 300 297 294 297 296 293 290 289 290 290 290 290 286 287 287 283 285 283 282 280 278 281 279 280 285 287 286 285 285 286 286
314 314 316 311 302 296 300 304 301 293 274 288 293 299 296 293 292 293 295 293 289 291 290 289 287 286 286 287 287 285 283 281 280 278 275 277 276 279 280 283 289 290 285 286 286
314 314 315 306 301 298 303 299 295 283 276 285 293 292 291 292 291 293 292 293 291 290 288 288 287 287 288 286 285 285 282 280 277 276 273 279 279 277 279 283 285 285 283 283 283
314 314 312 305 300 301 301 294 283 276 285 284 289 290 289 289 290 291 289 287 286 284 284 286 285 286 287 285 285 283 282 277 274 272 276 276 274 283 284 285 286 286 284 281 280
314 313 312 306 302 301 293 289 277 282 283 289 290 289 288 289 288 288 286 285 288 286 283 283 283 285 287 287 285 281 283 278 270 271 279 275 275 282 284 287 282 280 281 280 278
314 307 308 306 304 299 289 279 281 284 286 289 288 286 286 288 288 287 285 285 288 290 287 283 283 282 283 283 283 281 279 281 278 264 268 278 279 282 284 283 281 279 280 279 278
308 306 305 307 305 301 287 285 284 289 289 290 285 287 283 286 286 286 286 287 289 290 290 288 284 281 280 281 279 280 282 278 276 270 266 276 277 281 285 285 284 279 279 279 277
307 299 301 306 304 298 287 285 286 291 292 290 286 284 286 286 287 285 287 288 290 288 290 288 287 282 280 279 279 277 277 277 278 276 272 269 279 282 285 286 285 282 280 279 278
304 294 299 307 295 293 288 286 291 288 291 290 289 288 286 287 286 284 285 291 292 289 287 287 285 283 283 277 278 279 280 281 278 274 270 272 280 283 285 285 284 281 281 279 279
299 298 301 303 287 288 285 286 290 287 289 289 287 289 289 286 285 287 289 291 290 290 286 287 283 278 279 278 277 277 280 280 279 278 275 273 280 283 283 283 281 280 279 278 277
298 291 295 297 296 290 287 287 286 290 290 288 287 289 286 286 290 287 285 288 289 290 293 293 284 282 281 281 280 277 278 280 282 280 280 280 283 288 289 290 292 287 279 278 278
299 293 295 288 290 291 289 286 287 285 289 290 287 288 287 284 285 285 288 286 285 288 287 288 284 284 286 287 279 280 281 280 278 281 279 283 283 287 290 291 292 291 285 278 277
301 296 294 293 293 291 291 289 287 287 286 285 286 286 288 285 286 284 287 287 287 280 282 282 282 284 282 285 282 282 284 285 280 282 282 283 283 291 293 294 292 292 290 280 278
308 304 298 294 291 289 290 290 290 292 292 291 290 289 287 288 291 292 291 288 288 286 280 277 279 274 279 282 279 277 282 285 286 287 285 280 285 291 290 290 290 290 284 281 279

GFSSW_sfc_thetae_030.txt.gz
Theta_e
321 322 321 322 322 325 326 326 327 326 325 325 325 326 326 326 325 312 307 313 316 328 325 311 310 311 313 310 310 308 302 299 299 298 301 302 301 301 301 301 301 303 302 301 304
319 320 322 322 322 323 324 325 325 326 325 325 324 325 326 324 314 308 317 324 329 329 310 309 308 310 309 308 308 306 302 300 303 302 301 302 302 303 301 300 300 301 301 300 300
319 319 321 321 322 322 323 324 325 325 325 324 324 324 324 321 310 309 323 328 328 324 311 309 309 309 306 307 305 303 301 302 302 303 302 301 300 303 301 300 304 304 305 300 299
318 318 319 320 321 322 322 323 324 325 324 323 324 324 322 313 301 310 325 325 323 315 310 307 307 306 305 303 304 301 301 302 303 303 301 300 302 300 302 305 305 306 305 301 299
318 317 317 319 320 321 322 322 323 324 323 323 324 323 315 307 307 311 321 317 311 309 307 307 306 305 304 303 302 301 302 302 302 301 301 300 301 301 301 305 305 302 301 301 300
317 317 317 317 319 320 321 322 323 323 322 323 324 321 311 302 312 312 309 308 307 309 306 307 307 305 303 303 301 302 301 302 302 302 301 299 301 299 304 303 302 300 300 301 301
317 316 316 316 319 320 321 322 322 322 322 322 323 315 308 307 313 311 308 307 307 308 306 306 307 305 304 301 301 300 299 301 300 300 299 299 298 298 305 298 300 299 300 300 300
316 315 315 316 318 319 320 321 321 321 321 322 321 313 306 310 313 309 309 307 307 307 307 307 307 305 302 301 300 299 298 297 299 298 298 298 296 304 305 299 300 302 300 299 299
315 315 315 316 317 318 319 320 320 320 322 321 314 310 304 313 308 310 308 306 306 306 307 306 307 303 301 300 299 297 295 295 296 299 297 297 298 302 300 298 300 302 302 299 298
315 315 314 315 316 318 319 319 317 317 314 310 309 306 306 304 308 308 306 306 304 306 305 305 305 302 300 299 291 295 294 295 295 297 295 296 296 301 303 298 299 302 303 301 298
315 314 314 314 316 318 316 309 305 302 305 305 304 304 303 308 309 306 305 305 305 303 298 301 299 296 299 300 299 296 295 295 299 295 294 296 296 298 301 301 299 300 301 302 300
315 314 313 315 316 318 308 304 303 302 298 302 300 300 303 308 302 305 305 301 300 297 299 298 295 300 299 298 296 296 295 295 299 293 292 294 293 296 298 299 300 300 301 302 301
315 315 313 314 315 308 304 303 309 307 299 300 301 301 302 305 302 302 302 301 299 296 296 295 298 296 296 295 294 295 294 295 293 293 291 289 291 292 296 296 298 299 300 301 300
316 315 314 315 308 308 304 306 308 306 291 292 295 301 303 303 298 301 301 301 297 296 296 296 298 295 295 295 295 292 296 294 292 290 289 290 287 294 296 296 296 300 302 298 297
315 315 315 314 308 305 303 307 307 300 282 293 295 303 302 298 297 297 300 300 296 295 296 295 293 293 293 295 296 294 291 290 289 289 286 291 286 292 289 290 294 298 301 300 299
316 315 314 311 309 308 307 306 302 289 280 290 297 296 297 296 295 296 297 299 298 296 295 296 295 294 296 290 291 291 290 289 286 287 283 290 289 290 290 292 295 298 301 298 296
316 315 312 311 307 307 306 302 288 282 289 288 292 294 294 293 294 294 293 292 292 289 291 293 293 293 293 292 291 291 291 287 286 285 284 287 284 289 294 295 296 299 301 297 296
315 314 312 310 312 308 302 295 281 288 288 293 293 292 292 294 294 293 291 291 293 291 289 289 288 290 293 295 294 290 292 288 282 283 285 283 282 290 295 297 298 294 296 293 293
315 312 310 311 308 305 296 286 286 289 291 289 292 290 291 292 293 291 292 292 294 293 290 288 289 288 288 290 291 288 287 291 287 283 281 288 293 293 293 292 292 292 293 294 293
311 307 307 311 308 303 291 287 289 292 291 293 288 292 288 291 289 291 291 294 293 294 296 292 288 289 284 288 286 288 289 285 287 282 281 286 287 289 292 291 293 293 294 297 294
310 301 308 309 308 299 287 288 291 293 293 291 290 289 289 290 291 289 291 293 295 293 294 294 292 287 286 285 287 284 285 285 284 284 282 281 285 294 292 293 292 295 296 298 295
306 296 305 308 294 294 288 293 293 291 293 292 291 291 290 290 289 290 289 292 297 293 290 293 290 288 289 285 286 287 288 289 285 283 284 285 285 289 294 295 294 294 295 296 295
301 300 303 306 291 289 293 292 293 292 291 290 290 291 292 289 285 290 291 296 295 294 291 291 288 284 286 283 282 285 285 287 290 288 284 282 284 295 295 296 293 294 296 295 295
302 292 295 298 299 294 292 292 290 294 294 292 288 290 288 286 289 287 289 292 294 294 296 295 289 288 283 287 287 285 285 286 286 284 285 285 287 292 294 294 295 297 295 294 296
304 295 294 286 290 293 295 294 292 289 292 293 288 289 289 285 287 287 290 291 290 293 292 292 285 287 289 290 290 288 288 287 283 286 284 287 287 291 294 294 296 297 297 297 297
297 297 294 293 294 291 291 291 292 294 293 289 289 292 290 287 288 290 290 290 288 286 288 289 285 287 284 288 288 286 289 289 288 288 288 287 286 293 294 295 295 295 295 295 295
300 300 296 294 292 290 289 289 291 295 296 297 294 292 290 291 294 295 295 293 292 291 288 286 285 284 280 286 286 280 285 287 288 290 289 285 290 294 294 294 295 295 296 294 294

GFSSW_sfc_thetae_033.txt.gz
Theta_e
321 322 323 323 324 324 324 325 325 326 326 325 325 326 326 326 324 316 309 315 319 328 324 314 313 313 316 313 313 311 303 302 302 301 303 305 304 306 306 306 305 307 307 306 309
320 320 322 322 323 323 324 324 324 325 325 325 324 325 326 325 317 312 321 325 327 328 313 311 310 312 311 311 311 308 304 304 306 306 304 305 305 306 303 304 304 305 307 305 305
319 318 319 321 322 323 323 323 324 324 325 324 324 325 324 322 312 312 325 327 326 323 314 313 313 312 309 311 310 308 304 306 306 306 305 305 304 307 303 303 307 306 308 304 303
318 318 318 318 320 321 322 323 324 324 324 324 324 324 323 318 302 312 324 324 323 318 313 311 310 307 307 306 309 303 307 306 306 305 304 303 306 303 304 306 309 311 311 307 303
317 317 317 317 318 320 321 322 323 323 323 323 324 324 318 309 309 314 319 318 315 313 310 310 309 309 306 307 305 303 306 305 306 305 304 305 302 303 305 309 310 309 307 307 305
317 316 316 316 317 319 320 321 322 323 322 323 323 322 314 303 315 316 312 310 310 311 310 311 310 310 307 305 304 305 304 305 306 304 304 301 303 302 306 309 308 308 305 305 306
317 316 315 316 317 318 319 320 321 322 322 322 323 318 310 307 315 314 311 310 309 310 309 310 311 308 308 305 306 304 300 305 304 303 302 303 299 300 306 306 305 306 306 306 306
317 316 315 315 317 317 318 320 321 321 321 321 322 315 306 313 317 311 311 309 310 311 311 310 310 309 306 306 304 301 302 298 304 303 302 301 297 305 309 306 304 305 306 305 306
316 315 315 316 316 316 318 319 319 319 320 321 316 313 304 312 310 314 312 308 308 309 310 309 310 307 304 301 300 302 296 298 300 302 301 299 299 305 306 304 303 305 306 307 306
315 315 315 315 315 316 317 319 318 316 315 313 312 307 308 305 311 311 310 309 306 307 306 307 306 302 302 300 293 296 296 298 297 301 300 298 297 302 306 306 305 305 305 306 307
316 315 315 315 315 316 316 312 308 306 308 306 307 307 305 310 311 309 308 306 306 305 300 304 299 297 300 302 301 299 297 295 299 301 298 298 298 301 304 305 304 305 305 306 306
316 316 315 316 316 316 313 305 307 305 298 305 305 305 307 311 305 307 307 302 301 298 302 299 295 301 302 301 299 298 296 295 299 301 296 297 296 301 302 303 304 304 304 305 306
317 316 315 315 315 313 308 307 312 311 301 301 304 303 304 306 302 304 305 303 300 298 299 296 299 300 299 298 296 296 295 295 296 299 296 294 293 297 300 302 302 303 303 304 304
317 316 315 315 311 312 306 309 312 310 292 295 296 302 304 305 298 303 305 303 300 297 298 298 301 298 297 295 297 292 299 298 296 294 290 295 287 296 298 300 301 302 303 304 306
316 316 315 313 309 309 307 311 310 305 285 295 296 305 304 300 299 298 302 301 297 297 298 295 297 295 295 296 299 295 294 295 295 293 293 293 289 293 297 295 297 299 302 304 305
316 316 314 313 314 312 311 310 307 291 284 292 298 297 298 299 297 297 298 301 300 297 298 297 298 297 298 294 296 295 294 293 293 291 285 291 291 291 294 294 297 299 300 303 301
316 315 313 314 310 311 311 306 290 284 293 292 294 296 296 296 296 295 294 293 292 289 291 296 296 298 296 294 293 293 293 288 287 286 285 293 290 292 297 298 299 299 301 302 301
316 315 313 314 316 314 307 295 283 291 292 295 295 295 294 297 296 295 294 292 296 295 292 291 289 294 295 296 296 292 294 289 282 283 286 291 286 292 300 301 300 300 301 300 299
317 313 311 314 314 312 299 286 290 295 296 293 294 291 292 294 295 295 294 295 297 295 290 290 290 291 293 294 296 291 288 294 289 289 286 289 294 299 298 298 298 298 298 298 298
312 309 308 313 312 305 291 289 295 298 296 294 289 293 290 293 291 292 293 297 296 298 299 295 289 294 287 291 290 291 292 287 288 282 281 287 289 290 294 296 297 296 297 299 300
311 302 311 312 308 298 285 288 297 299 296 291 291 291 293 293 294 292 292 296 298 298 298 296 293 290 288 287 290 286 287 287 287 289 283 281 286 296 295 297 297 298 298 299 301
308 296 308 309 294 293 287 294 297 298 296 293 293 292 291 292 291 291 291 295 299 297 291 295 292 288 291 295 292 293 291 291 285 284 286 285 285 294 297 298 297 297 298 301 301
303 303 305 307 291 289 291 293 296 297 294 290 289 292 294 289 285 290 293 298 298 295 293 293 288 284 286 288 287 287 289 290 291 289 284 283 285 297 299 297 296 297 298 299 299
302 294 296 298 301 296 290 292 293 300 297 296 292 292 290 288 291 289 291 296 297 296 297 295 289 285 282 288 292 286 287 289 288 284 285 285 288 292 295 296 298 299 300 300 300
299 296 297 288 291 295 295 294 292 292 298 298 293 292 290 288 289 288 290 292 294 295 293 292 284 287 289 290 290 288 288 288 286 287 284 287 288 292 295 296 298 299 298 298 298
292 294 295 293 296 292 293 292 292 294 296 294 291 293 294 288 291 291 292 291 290 291 290 291 283 286 284 288 288 286 288 289 289 289 289 288 288 295 296 297 296 296 297 297 297
298 296 289 288 291 290 290 293 293 296 298 299 297 293 292 292 295 298 299 298 293 290 287 286 284 283 280 287 286 281 286 287 289 291 290 286 291 296 295 295 296 297 298 297 297

GFSSW_sfc_thetae_036.txt.gz
Theta_e
321 321 322 323 324 324 325 325 325 325 326 326 325 326 326 326 324 317 309 318 320 327 323 314 313 312 314 312 312 310 298 296 299 298 298 301 299 302 301 298 300 303 300 302 305
319 319 320 321 322 323 324 324 324 325 325 325 325 325 326 325 316 313 325 329 329 328 314 310 309 310 308 309 309 303 300 301 301 301 298 301 300 300 297 298 299 300 302 303 302
319 318 318 319 320 321 322 323 324 324 324 324 324 325 325 322 313 312 328 329 328 324 315 312 311 310 306 308 306 304 300 302 303 302 302 301 300 302 298 297 300 300 301 300 299
318 318 318 318 318 320 321 322 323 324 324 324 324 324 324 319 300 314 328 327 325 318 313 310 310 306 304 303 307 299 304 305 305 303 301 299 301 300 300 301 303 301 304 301 299
317 317 317 317 318 319 320 321 321 323 323 323 323 324 320 309 308 315 323 321 315 313 310 308 306 306 302 304 304 300 302 304 304 302 301 302 299 299 299 302 305 304 303 300 300
318 317 317 317 317 318 319 320 321 322 322 322 323 322 314 301 314 315 310 311 311 310 308 308 307 307 303 302 301 301 302 301 303 302 301 299 298 299 300 303 303 303 301 301 301
318 317 317 317 317 317 318 319 320 321 321 322 323 319 310 306 315 314 311 309 309 308 306 309 309 305 306 302 304 300 296 299 300 301 299 299 295 296 301 302 301 301 301 301 301
317 316 316 316 316 316 317 318 320 320 321 322 322 316 305 313 314 311 311 308 309 310 310 309 309 306 304 303 301 296 296 292 298 300 298 297 291 299 302 301 299 299 299 300 301
316 316 316 316 316 316 317 317 318 321 321 321 316 312 304 314 309 313 310 307 307 308 309 308 309 303 302 295 292 295 289 292 296 300 297 295 292 299 300 297 297 298 299 300 300
316 316 316 316 316 316 316 318 320 316 315 316 312 306 307 305 310 311 309 309 306 306 305 304 302 297 296 294 287 290 290 292 292 295 295 293 293 297 299 299 298 300 300 300 301
317 316 316 316 316 317 314 311 306 306 308 304 305 304 305 310 311 308 307 305 305 302 295 300 294 291 295 297 297 295 293 292 295 298 294 294 294 297 300 298 298 300 301 301 302
317 317 317 317 317 317 314 305 305 304 296 303 303 305 308 309 304 306 306 300 299 294 297 296 292 298 299 298 295 294 291 291 295 296 294 292 293 296 298 299 300 300 301 301 299
318 317 316 316 316 315 307 307 312 310 298 300 303 302 302 306 300 302 302 301 297 295 296 293 295 300 297 294 293 293 291 291 291 294 291 289 288 291 295 299 300 300 301 301 298
318 317 316 315 312 311 306 309 311 310 290 294 297 302 304 304 296 304 304 301 298 294 295 294 298 297 295 293 294 289 294 293 292 289 284 290 282 290 291 294 296 297 298 298 297
317 317 316 314 310 307 307 310 309 306 280 296 295 305 304 298 298 298 301 299 294 294 295 292 293 293 292 293 295 291 292 290 290 288 287 287 283 287 293 291 294 295 297 298 297
318 317 315 313 314 312 312 310 306 288 279 293 297 296 297 297 297 296 297 298 298 295 294 293 295 294 294 293 293 293 290 289 287 285 279 286 286 284 288 291 292 295 297 296 296
317 317 313 315 310 312 310 305 287 281 294 291 293 295 294 294 295 293 292 290 288 285 286 291 292 293 294 290 290 290 287 280 279 277 279 287 284 289 291 292 293 294 297 295 296
318 316 313 314 316 313 306 294 281 292 292 295 294 295 292 294 294 293 291 289 292 290 287 286 285 292 293 292 290 287 289 281 275 275 282 285 280 286 294 296 295 297 293 294 294
317 314 311 312 314 311 299 284 289 295 297 295 295 289 289 293 293 292 290 290 293 293 287 286 286 290 291 292 294 288 284 290 283 276 276 283 286 291 293 294 294 292 293 292 292
313 310 308 314 312 305 291 287 293 300 298 295 288 291 287 290 289 290 290 293 293 295 296 291 286 289 287 288 287 287 289 282 282 272 272 282 282 284 288 290 291 291 292 292 293
311 303 311 313 310 298 286 287 294 300 300 295 292 288 289 288 290 290 290 293 295 294 296 293 290 286 286 283 285 283 282 284 285 282 278 279 282 288 291 292 292 292 293 293 294
307 296 309 310 295 295 289 291 297 296 300 297 292 291 289 290 289 287 287 291 295 294 290 292 289 284 287 288 288 289 287 287 281 280 280 282 284 289 290 291 293 292 293 294 295
299 302 307 308 292 292 291 293 295 296 296 295 294 292 294 290 286 289 290 296 298 294 291 291 285 281 282 287 284 284 287 289 289 286 282 280 283 294 293 290 291 291 291 293 294
298 293 297 299 301 296 294 291 291 297 295 297 296 296 293 290 292 289 290 294 295 295 297 295 287 284 280 284 288 284 285 287 286 282 283 283 285 290 293 294 296 296 293 294 294
296 293 297 289 290 293 296 295 292 290 296 298 294 295 292 288 289 289 291 292 294 296 293 290 283 285 286 287 287 286 286 287 285 285 282 285 285 289 292 294 295 297 296 295 295
290 291 291 289 290 289 292 290 291 293 295 293 292 294 295 291 291 289 292 291 290 291 291 291 283 285 283 286 286 284 286 287 287 287 287 286 285 292 294 295 295 295 296 295 295
295 294 289 287 287 286 287 290 289 287 291 296 294 294 293 295 298 298 298 298 296 293 290 286 284 282 279 284 284 280 284 285 287 289 288 283 288 294 293 294 295 295 296 296 296

GFSSW_sfc_thetae_039.txt.gz
Theta_e
320 321 321 322 322 323 324 325 325 324 324 324 325 326 326 326 324 316 307 316 317 328 321 310 309 307 307 306 306 303 292 290 293 294 294 296 296 298 299 297 298 301 298 300 302
319 319 320 320 320 322 323 323 324 324 324 324 324 324 325 324 315 310 322 334 331 327 311 306 304 305 301 303 303 298 292 295 298 296 294 297 297 298 295 295 296 297 298 301 300
318 318 318 319 319 320 321 322 323 324 324 324 323 324 324 321 310 308 331 333 331 325 312 308 307 305 300 302 301 299 295 299 299 299 299 297 296 299 296 295 296 297 297 298 296
318 318 318 318 318 319 320 321 321 323 323 324 323 324 323 315 292 310 330 330 328 314 310 305 304 301 298 298 303 296 301 302 303 300 299 296 298 297 297 299 301 300 300 298 297
319 318 318 317 317 318 319 319 320 321 322 323 323 324 316 303 304 315 326 323 313 312 306 304 301 301 297 298 300 297 298 301 301 300 299 299 298 296 297 299 300 301 300 298 298
318 318 317 317 316 317 317 318 319 319 320 321 323 323 306 297 309 313 309 310 309 306 304 304 303 303 299 299 296 297 298 299 299 299 299 297 295 296 297 300 299 300 299 298 298
318 317 317 317 317 316 317 317 318 319 320 321 322 319 306 301 310 310 308 306 305 305 302 304 304 301 300 298 300 298 295 296 297 298 297 297 294 295 301 298 298 298 298 298 298
317 316 316 317 317 317 317 317 318 319 320 322 322 313 298 310 307 308 307 305 305 305 306 306 305 302 299 300 297 292 291 288 294 297 297 297 290 296 299 296 297 298 296 296 298
316 316 316 317 317 317 317 318 318 319 321 321 310 305 299 313 307 309 306 304 304 305 305 307 304 299 298 292 288 288 284 288 292 297 295 293 290 295 297 295 296 295 296 297 297
317 316 317 317 317 317 318 318 318 316 315 316 312 300 303 301 307 307 305 305 302 303 301 300 298 293 292 288 283 285 285 288 289 293 292 290 291 295 296 295 295 294 294 296 298
317 317 317 317 318 319 315 306 300 298 302 297 299 299 303 306 308 305 304 303 302 299 292 296 290 288 291 293 292 289 288 287 292 295 292 292 292 295 297 294 295 297 298 298 298
318 318 317 318 318 318 309 301 300 299 291 301 300 302 305 306 301 303 304 297 296 292 293 292 289 294 295 295 293 291 290 288 291 293 291 290 291 294 295 297 295 297 298 299 300
319 318 317 317 317 311 304 302 307 305 294 298 299 297 299 304 299 300 300 297 294 291 292 290 292 297 295 293 292 292 289 289 289 291 290 288 287 290 294 296 298 299 299 300 300
319 318 317 317 310 306 301 305 306 304 283 289 294 299 301 300 294 301 300 298 294 292 291 291 296 294 292 291 292 288 291 291 289 286 284 287 282 286 290 292 294 297 298 299 297
318 318 317 315 306 304 305 306 303 299 277 292 293 302 301 293 294 295 298 295 291 291 290 289 289 289 290 292 292 290 292 290 287 285 284 285 282 285 290 288 292 295 298 299 294
318 318 316 313 307 308 308 305 300 283 276 288 294 294 293 294 294 294 294 295 295 291 291 291 293 293 292 291 292 292 289 287 285 283 278 284 284 286 285 290 291 295 296 298 295
318 317 313 315 308 308 306 299 286 277 290 288 289 293 291 291 292 291 289 287 286 283 283 288 289 292 293 289 290 290 286 279 277 276 279 285 282 288 289 290 292 294 295 295 294
317 317 314 315 315 312 306 293 282 288 289 294 291 291 289 291 291 290 287 285 288 286 284 283 284 289 292 292 288 286 288 281 276 276 282 282 279 285 293 296 294 294 297 293 293
316 314 312 312 314 311 298 285 291 292 295 293 292 287 286 290 290 288 286 286 289 290 285 283 284 288 289 290 292 286 283 289 283 274 274 284 285 289 290 291 292 292 290 291 291
311 310 309 313 313 306 293 292 291 298 299 296 289 291 285 285 287 288 287 290 290 291 294 289 284 288 286 288 287 286 288 283 282 276 271 282 278 284 289 290 292 291 290 290 291
308 302 307 313 310 298 288 290 294 298 298 295 294 293 290 287 287 287 287 290 291 292 292 290 288 285 284 284 284 283 283 284 284 282 279 278 282 288 289 292 293 291 291 290 292
303 294 309 311 297 295 292 295 298 297 297 296 293 293 293 293 291 291 289 291 294 294 289 290 288 283 284 286 288 287 286 287 282 281 280 281 283 289 289 288 290 291 292 292 293
298 298 308 308 291 293 294 295 297 296 296 295 294 294 296 292 288 290 292 297 297 296 292 294 285 280 281 286 285 284 286 287 287 284 282 279 282 293 290 289 290 290 290 292 292
296 291 298 299 300 295 293 293 292 297 295 296 295 297 294 291 293 290 291 294 296 296 298 296 286 284 281 284 287 285 283 285 285 282 282 283 285 290 292 293 295 296 295 293 293
294 291 294 285 292 293 294 292 291 289 296 296 293 293 292 289 291 290 292 293 295 296 293 292 284 285 287 289 290 288 287 287 285 287 282 284 284 288 291 293 294 296 297 296 293
287 289 291 288 290 289 289 289 288 290 291 290 290 290 289 286 288 288 290 292 291 289 292 293 285 286 284 286 286 284 287 287 287 287 286 287 286 294 295 296 294 294 295 295 295
291 293 289 284 283 282 283 286 287 286 287 290 287 286 284 287 290 290 289 288 289 290 291 288 285 284 280 285 284 280 284 285 287 289 288 283 288 294 293 294 295 296 297 296 296

GFSSW_sfc_thetae_042.txt.gz
Theta_e
320 320 321 322 322 322 323 324 324 324 324 324 324 324 325 325 324 314 305 312 316 330 323 309 308 306 305 304 304 300 290 288 291 292 294 295 294 297 297 295 296 300 296 298 300
319 319 319 320 320 321 322 322 323 323 323 323 323 324 324 325 312 307 320 333 332 331 309 305 302 303 300 302 302 296 289 291 296 295 294 295 295 295 294 294 295 296 297 299 299
318 318 318 318 319 319 320 321 321 321 322 323 323 323 324 321 305 305 332 335 332 326 309 306 305 304 298 300 299 297 293 297 299 298 298 296 294 296 294 294 296 297 297 297 295
319 318 318 318 318 318 319 320 320 320 321 322 322 323 323 313 291 307 331 331 331 312 308 304 302 299 297 297 300 294 299 299 301 299 297 296 296 295 295 300 300 299 298 296 295
318 318 317 317 317 318 318 319 319 320 320 321 322 323 314 301 302 315 328 326 313 309 304 302 300 299 296 296 297 296 297 300 300 299 297 297 297 295 296 298 299 299 297 297 297
318 317 317 317 317 318 318 318 319 320 320 320 322 322 304 294 307 314 311 309 306 306 303 302 301 302 298 298 295 296 297 298 298 298 297 297 295 295 299 297 298 298 297 296 298
318 317 317 317 318 318 318 318 318 319 319 320 321 317 305 299 308 309 307 305 305 304 301 301 302 300 298 297 299 297 294 295 297 296 296 296 294 293 301 296 297 297 296 296 298
317 316 317 317 318 318 319 319 319 319 319 320 322 311 296 308 306 306 304 303 304 304 304 304 304 301 298 299 296 291 290 287 292 294 295 296 290 296 297 296 296 295 295 295 296
317 316 317 318 318 318 319 320 319 319 319 321 309 303 297 312 305 307 305 303 303 303 303 306 302 297 297 290 287 286 283 285 290 295 293 292 290 297 297 294 294 294 294 296 297
318 317 317 318 318 318 319 319 318 315 314 315 310 298 300 300 305 306 304 304 301 302 299 298 296 291 291 287 282 283 283 286 287 291 291 289 290 295 296 293 293 294 293 293 295
318 318 318 318 319 320 315 304 297 295 299 296 296 297 300 305 306 303 303 301 301 297 291 294 288 287 290 291 291 286 286 285 289 293 290 290 292 294 297 295 294 296 297 297 295
319 319 318 318 319 319 306 301 299 299 291 298 298 299 302 304 298 301 302 296 295 290 292 289 287 292 292 291 291 289 288 287 290 293 290 290 290 293 294 297 297 297 297 297 299
319 318 318 318 318 310 302 300 306 304 293 295 298 296 296 302 296 298 300 296 292 290 290 289 291 295 292 290 289 289 287 288 288 289 288 287 287 287 291 296 297 298 299 299 298
319 318 318 317 311 306 300 304 304 301 283 288 293 297 299 299 292 299 298 296 292 290 289 289 294 292 290 289 291 287 291 291 288 284 283 286 282 284 289 291 293 296 297 298 300
319 319 318 315 306 305 304 305 303 295 279 292 292 301 299 292 292 294 297 295 289 290 289 288 288 288 288 291 291 290 290 288 285 283 282 283 281 284 289 288 292 296 296 298 299
319 319 317 313 308 308 307 303 297 285 279 288 292 292 291 293 292 293 293 294 293 290 289 290 291 290 290 290 290 290 287 286 283 282 278 284 283 286 284 289 290 294 296 298 300
318 318 315 316 309 309 306 298 290 282 291 288 287 291 289 289 290 290 288 287 286 282 281 285 288 289 292 288 288 288 285 278 275 275 278 284 282 287 289 291 291 294 296 297 299
316 317 314 315 313 312 307 298 285 290 288 293 291 290 288 290 290 289 286 284 287 286 282 281 283 287 290 290 287 286 286 279 273 277 281 281 279 287 292 295 295 295 296 294 291
313 315 312 314 314 310 302 290 290 291 295 294 294 290 286 289 290 288 285 285 288 289 284 282 283 287 289 289 291 285 283 289 281 272 274 281 285 290 289 290 290 291 290 290 290
309 310 308 314 313 307 296 293 292 296 297 294 290 292 286 285 286 286 286 288 288 289 291 287 283 286 286 287 286 286 288 281 281 273 271 279 280 285 288 290 293 290 291 291 290
305 301 305 314 310 299 290 292 296 298 298 295 293 293 291 287 287 289 289 289 290 290 290 290 287 285 283 284 285 283 283 283 283 282 279 278 282 293 290 288 289 290 290 289 289
300 291 307 311 296 296 293 296 298 295 298 297 296 295 293 294 292 292 290 291 291 291 288 291 288 283 286 289 287 286 285 286 282 280 280 283 283 294 293 292 289 289 290 290 291
296 295 308 308 290 292 295 295 297 296 296 295 294 294 296 292 289 292 293 298 298 296 291 291 286 282 282 285 289 284 288 288 287 286 281 278 281 295 295 294 292 291 294 294 292
294 285 296 300 298 292 291 291 292 297 295 297 295 296 293 291 294 291 292 295 295 296 298 296 289 285 280 285 287 284 285 286 286 281 282 283 284 289 292 293 294 295 296 297 298
292 286 289 287 290 292 293 292 289 289 295 295 292 293 291 288 288 288 291 290 294 296 293 293 285 287 288 289 289 289 288 288 286 287 283 286 285 289 292 293 294 295 296 295 293
287 285 288 286 287 288 289 288 289 290 290 289 289 284 286 284 285 282 284 286 284 286 285 287 283 285 283 287 286 285 287 288 288 288 288 288 287 294 296 297 296 297 296 296 297
288 292 288 284 282 281 282 285 286 287 287 289 284 282 281 283 285 285 286 285 284 282 281 281 281 280 277 284 285 281 285 286 287 289 288 284 289 293 292 293 294 294 292 290 289

GFSSW_sfc_thetae_045.txt.gz
Theta_e
320 320 320 321 321 321 322 323 323 323 323 324 324 324 324 324 323 312 303 311 315 330 318 307 306 304 304 302 302 297 290 287 289 291 293 294 293 295 296 294 295 298 295 297 299
319 319 319 320 319 320 320 321 322 322 322 323 323 323 323 324 310 305 318 330 332 330 307 304 301 302 299 300 300 295 287 289 293 294 293 294 294 294 295 293 294 296 296 297 299
319 318 318 318 319 319 320 320 320 321 321 322 322 323 323 319 300 300 330 333 334 323 307 304 303 302 296 298 298 295 291 294 297 298 297 295 293 295 293 293 295 296 297 296 296
318 318 318 318 318 319 319 320 320 320 320 321 322 323 323 311 290 303 331 333 332 311 306 303 300 297 295 295 298 293 298 297 299 299 296 295 295 293 295 300 298 298 296 295 295
318 318 317 317 318 319 319 320 320 319 320 320 321 323 312 298 299 312 329 327 311 307 303 300 298 297 294 294 295 295 297 299 298 299 297 297 295 295 296 299 298 298 296 296 296
318 317 317 318 318 319 319 320 320 319 319 320 320 322 303 292 304 315 313 308 305 304 301 300 299 300 296 296 295 294 296 296 296 297 296 296 296 294 300 295 297 297 296 295 296
318 317 317 318 318 319 320 320 320 320 319 319 320 317 302 298 307 311 307 304 305 304 300 302 302 299 297 295 297 295 293 294 294 295 295 294 294 292 300 296 297 295 296 295 296
318 317 317 318 319 319 320 320 321 321 320 320 320 309 294 305 305 304 304 302 303 304 302 302 302 299 297 297 294 289 289 286 291 293 294 295 289 296 294 295 295 295 293 294 295
318 317 318 318 319 319 320 320 320 319 319 321 309 301 295 310 303 305 303 301 302 302 302 306 301 296 294 289 286 284 282 283 288 294 292 291 288 295 294 292 294 294 294 294 295
318 318 318 319 319 319 320 319 318 315 315 314 309 296 299 298 302 304 301 302 299 299 298 297 294 290 289 286 281 282 281 283 284 289 289 289 289 294 297 293 295 294 294 294 295
319 318 319 319 319 320 314 302 296 294 298 296 297 296 297 302 304 301 301 300 299 295 289 292 287 286 290 289 291 284 283 283 287 291 288 288 290 293 297 296 296 295 297 298 299
319 319 319 319 320 319 304 299 297 296 291 297 296 298 300 302 297 300 301 295 294 289 290 288 285 291 290 289 289 288 286 286 290 292 287 288 288 292 293 295 298 298 298 298 298
319 319 319 319 318 310 300 299 305 302 290 294 297 295 296 300 295 296 299 295 291 289 289 287 290 293 290 288 287 285 285 287 286 288 287 286 287 287 290 294 297 298 299 299 298
319 319 319 318 312 306 300 303 303 298 285 289 291 295 297 298 292 298 297 295 291 289 288 287 291 291 288 288 288 285 289 289 288 284 282 285 280 286 289 290 292 294 296 296 298
319 319 319 317 308 306 305 304 302 294 280 292 291 300 298 291 292 293 296 294 289 289 288 286 286 286 287 289 290 287 289 287 285 282 281 281 279 284 286 286 290 294 296 297 298
319 319 318 313 309 311 309 305 298 288 281 288 291 291 290 291 291 292 292 293 292 288 288 289 289 289 289 289 290 288 286 285 282 281 277 283 281 286 284 288 288 292 294 296 297
318 318 315 316 310 309 306 298 291 286 292 287 286 290 288 287 289 289 288 287 286 282 281 284 286 289 290 286 287 287 284 278 275 274 278 282 281 287 288 289 290 292 293 295 294
313 317 314 315 312 313 310 300 286 291 289 292 289 288 288 289 289 288 285 284 287 284 281 281 283 286 289 289 286 285 285 279 272 275 281 280 278 286 290 292 292 291 291 291 292
312 314 313 314 314 313 305 290 289 294 296 295 296 291 289 288 289 286 284 284 288 287 285 281 282 286 288 288 290 283 282 287 280 276 273 279 284 289 294 290 288 290 289 290 291
307 309 309 314 314 308 299 293 292 298 298 295 291 292 286 285 285 284 284 287 287 288 289 288 282 286 284 286 285 286 286 281 279 274 273 278 279 284 289 290 289 291 290 290 289
301 297 302 314 310 300 291 291 296 299 299 296 293 292 292 290 289 290 290 291 289 289 290 288 287 286 285 284 286 282 282 282 283 282 279 277 281 291 292 294 288 289 292 292 289
298 290 305 311 296 296 292 293 298 296 299 298 296 295 292 292 290 290 290 294 292 292 289 290 287 283 285 290 287 286 285 286 281 279 280 282 283 294 295 295 294 294 290 290 289
294 293 306 307 289 290 293 293 296 295 296 295 294 295 296 292 288 291 292 297 297 294 291 291 286 282 283 285 286 285 288 287 288 286 282 279 282 294 294 294 295 291 293 292 294
292 285 295 299 298 293 290 290 291 296 295 296 294 295 293 290 293 288 289 293 292 293 295 295 289 285 280 284 286 282 283 286 287 282 282 282 284 289 291 292 295 296 294 293 294
291 286 289 285 289 291 292 290 288 287 293 294 292 292 289 287 287 286 286 286 289 290 288 286 281 284 284 283 283 283 284 285 284 285 282 284 284 289 291 293 294 294 293 289 288
284 285 288 286 286 288 290 287 287 288 290 289 288 285 284 282 282 280 279 280 280 284 281 283 277 281 277 281 282 281 283 284 285 285 285 287 286 292 288 287 284 287 286 285 286
286 290 287 284 282 281 283 286 286 285 287 288 283 281 280 282 282 283 283 282 281 279 277 277 273 269 271 277 277 274 279 282 284 286 285 281 280 283 279 281 280 284 284 284 285

GFSSW_sfc_thetae_048.txt.gz
Theta_e
320 320 321 321 321 321 321 322 322 322 322 323 324 324 324 324 323 311 301 310 313 329 318 306 305 303 303 301 300 296 290 286 289 289 292 294 292 294 295 295 295 297 295 295 299
319 319 319 320 320 320 321 321 321 321 321 322 322 323 323 323 308 304 317 328 333 327 306 303 300 301 298 298 299 294 287 289 292 292 293 293 293 294 296 293 293 295 297 297 300
319 319 319 319 319 320 321 321 321 320 321 321 322 322 323 319 298 298 328 329 334 322 306 303 302 301 295 299 297 293 291 291 294 296 296 295 293 294 293 293 294 296 297 296 297
319 318 318 318 319 320 321 321 321 320 320 320 321 322 323 309 291 301 332 334 331 307 304 301 300 296 294 294 297 293 296 296 297 297 295 294 294 293 294 300 298 298 297 295 295
319 318 318 318 319 320 320 321 321 321 320 320 320 322 310 295 298 315 329 328 309 306 302 299 297 296 293 293 294 294 295 297 297 298 296 296 295 294 295 300 297 297 296 296 295
318 318 318 318 319 320 321 321 321 321 321 320 320 321 301 292 303 317 314 306 305 302 300 300 298 299 295 294 294 293 294 295 296 296 296 295 297 294 297 296 297 296 295 295 295
319 318 318 318 319 320 321 321 321 321 321 321 319 315 300 296 306 310 307 303 304 303 299 300 300 298 295 293 295 293 291 292 292 293 293 293 292 291 299 294 296 295 294 295 294
318 318 318 318 319 320 321 321 321 321 320 320 320 307 293 303 304 304 302 300 302 302 301 301 300 298 295 295 293 288 287 285 289 292 292 294 288 295 295 292 294 294 293 293 295
318 318 318 319 319 320 320 321 319 320 321 320 307 298 293 309 302 303 301 300 300 300 300 304 300 294 293 288 285 284 281 282 286 292 290 290 287 293 294 291 293 295 297 295 296
318 318 319 319 319 320 320 318 317 315 314 313 307 294 297 296 301 302 300 301 298 298 297 296 293 289 287 285 280 282 280 282 282 288 288 287 287 292 296 292 294 295 297 298 299
319 319 319 319 320 321 310 299 297 296 297 295 296 294 297 300 303 299 300 300 298 294 289 290 287 285 289 289 286 283 282 281 286 290 286 287 289 291 294 294 295 296 297 297 297
319 319 319 319 320 318 302 297 295 295 291 297 296 297 298 301 296 298 300 295 293 289 289 287 284 290 289 288 288 286 284 284 288 291 286 287 287 291 293 293 295 296 297 298 298
319 319 319 319 319 310 300 298 304 301 290 294 296 294 295 299 293 296 298 294 291 288 288 286 289 292 289 287 286 284 284 286 284 287 287 284 284 286 290 293 295 296 297 298 295
320 319 319 319 312 306 300 302 303 297 287 290 290 294 296 296 291 297 296 294 289 288 287 287 290 289 286 287 287 283 288 287 286 282 279 285 279 283 288 289 290 293 295 293 293
319 319 320 318 312 308 304 303 301 294 283 292 290 298 296 291 291 292 295 293 287 288 287 286 286 285 285 287 288 286 287 285 283 281 280 279 278 282 286 286 289 292 293 294 294
319 319 318 314 310 310 307 305 298 289 284 289 290 290 289 290 290 291 292 294 291 288 286 288 288 289 289 288 289 287 286 284 281 280 276 281 281 285 283 285 286 290 292 293 293
313 316 316 317 310 309 306 303 292 285 293 287 286 289 287 285 288 288 288 286 286 282 281 283 286 288 289 285 286 286 283 277 275 274 277 280 280 286 289 291 290 291 293 293 291
312 313 314 316 312 313 311 299 285 292 292 295 291 288 287 289 289 286 284 284 286 284 280 281 283 286 288 288 286 284 285 279 274 276 281 280 277 287 289 291 291 291 290 290 290
312 313 313 314 314 314 305 290 289 293 297 296 296 292 291 291 290 286 284 285 288 288 285 281 282 286 287 287 288 282 281 287 282 280 276 282 283 290 294 292 289 289 287 289 289
304 306 308 315 315 309 299 292 291 297 298 295 290 291 285 288 287 286 287 287 287 289 290 287 283 286 285 286 286 285 286 280 280 274 274 279 282 284 289 291 289 290 290 290 290
300 295 300 313 311 301 291 291 293 299 299 295 292 291 290 288 289 289 288 289 288 289 289 288 285 287 284 283 284 282 281 282 282 281 278 277 281 291 291 293 292 289 289 291 291
297 288 302 312 296 296 291 294 296 295 298 297 297 295 292 291 290 291 290 292 292 291 289 289 287 282 285 288 287 286 286 286 282 280 282 281 282 293 292 293 294 295 290 290 291
292 292 302 307 288 289 292 291 294 293 293 294 294 295 295 292 288 290 290 294 294 293 291 291 285 281 281 284 285 283 286 286 287 286 281 278 281 294 293 292 293 287 288 289 288
292 285 293 299 297 292 290 290 289 295 294 295 294 295 292 290 292 289 289 292 290 292 294 294 286 284 280 283 284 283 283 284 283 278 279 281 283 287 289 290 288 286 286 286 286
289 285 289 285 287 290 291 290 288 287 293 293 290 291 290 286 287 286 285 284 288 288 287 285 278 282 281 281 282 281 279 280 279 281 278 280 280 284 281 279 281 285 284 284 284
284 285 288 285 285 285 287 286 285 287 289 287 287 289 285 285 283 281 279 280 279 282 279 281 274 277 274 278 278 276 278 279 279 279 279 280 281 279 280 281 280 283 284 282 282
286 288 286 282 281 279 280 283 282 284 285 286 283 282 280 282 283 283 283 282 281 278 276 276 272 265 269 276 273 268 274 276 276 277 275 274 275 278 277 278 279 282 281 280 281

GFSSW_sfc_thetae_051.txt.gz
Theta_e
320 320 321 321 321 321 322 322 322 322 322 322 323 323 324 324 322 312 301 310 313 330 318 307 306 305 306 304 303 300 293 289 292 291 294 297 296 298 299 299 299 300 300 302 303
319 319 320 320 321 321 322 322 322 321 321 321 322 323 323 323 309 303 315 325 332 325 305 303 301 303 300 301 301 297 291 291 294 294 295 296 296 298 298 297 297 299 300 300 303
319 319 319 320 320 321 322 322 322 321 321 320 321 322 322 318 298 298 328 328 333 319 305 303 303 302 298 300 299 296 293 293 295 295 296 297 295 298 296 295 297 298 301 299 300
318 318 318 319 320 321 322 322 322 322 321 320 320 321 322 308 291 299 332 331 331 307 304 302 301 298 296 295 298 294 297 295 298 298 297 296 297 296 296 302 302 300 302 299 298
318 318 318 319 319 321 322 322 322 322 321 321 320 321 307 295 298 318 330 329 307 305 302 300 298 297 294 294 296 295 296 298 298 298 297 297 296 296 297 301 300 298 298 298 298
318 318 318 319 320 321 322 322 322 322 321 321 320 320 298 290 304 318 313 307 304 303 300 300 299 299 295 295 295 294 295 295 296 296 296 295 296 295 298 299 298 297 298 297 297
319 318 318 319 320 321 322 322 322 322 321 321 320 313 297 294 308 310 307 303 304 302 299 300 300 299 297 294 296 294 292 292 292 293 294 294 292 292 299 296 296 296 296 296 297
318 318 318 319 320 321 322 322 321 320 320 321 320 305 292 303 306 305 302 300 302 302 301 301 301 299 297 297 293 289 288 286 291 292 293 294 288 294 295 293 295 296 296 295 296
318 318 318 319 320 320 321 321 319 321 320 320 306 295 292 309 301 302 301 299 300 300 301 303 300 295 294 289 286 286 283 283 287 292 291 292 288 294 294 294 295 297 298 298 299
318 318 319 320 320 320 320 316 317 315 315 314 306 293 296 295 301 301 299 301 298 298 297 296 292 289 287 286 281 283 282 283 283 290 288 288 288 292 296 293 295 296 298 298 298
319 319 319 320 320 321 307 298 299 298 296 295 295 293 296 300 302 299 300 299 298 295 290 291 287 285 289 288 287 285 283 282 285 290 287 288 288 291 294 294 294 295 297 297 297
319 319 320 320 321 318 302 296 294 296 292 298 296 296 297 299 295 297 300 296 293 289 290 288 285 290 289 288 287 286 284 285 287 290 287 286 287 292 293 294 295 295 296 297 297
319 319 319 320 319 310 300 298 303 300 290 295 296 294 295 297 293 294 297 294 291 288 288 287 289 291 289 287 286 284 284 284 284 286 287 285 284 287 291 292 294 295 296 296 296
320 320 320 320 312 305 300 302 303 298 288 291 290 293 296 294 289 296 296 293 289 288 287 287 290 289 286 287 286 283 287 287 285 283 281 286 279 284 290 291 293 293 293 294 294
319 319 320 319 312 309 306 302 300 295 283 292 289 297 296 291 290 292 294 292 287 288 286 286 286 286 286 287 288 286 287 285 284 282 280 281 279 283 286 287 290 292 294 294 294
318 319 318 314 312 310 307 304 299 291 285 289 289 289 288 290 289 291 291 293 290 287 286 287 288 288 288 288 288 288 285 284 282 280 277 281 281 283 284 287 288 291 293 295 293
314 317 316 317 311 310 307 306 293 286 294 286 285 288 287 285 287 287 287 286 285 282 281 285 286 287 288 285 286 286 283 278 276 275 278 281 280 285 288 290 290 292 293 294 293
312 316 314 316 311 310 311 299 285 292 293 294 290 290 291 292 290 286 284 284 286 285 281 282 282 285 287 288 287 284 284 281 275 277 281 280 280 287 290 291 292 291 291 291 291
312 314 312 314 314 314 303 289 289 290 296 295 295 292 291 292 294 288 286 287 290 288 286 280 281 286 286 287 289 283 282 287 283 273 274 282 283 290 293 291 289 289 289 290 292
305 305 306 314 315 310 299 292 291 296 298 296 289 290 283 288 288 286 287 286 287 289 290 288 283 287 285 286 285 285 287 280 279 275 275 280 281 283 289 289 289 289 290 290 289
300 294 300 314 312 302 291 292 293 298 299 295 293 290 288 287 290 289 288 289 288 287 287 287 286 285 286 283 283 282 281 282 283 282 278 276 280 291 290 289 286 287 288 288 288
297 289 301 312 297 296 289 292 295 293 296 296 295 293 291 291 291 290 290 291 294 292 289 289 288 282 284 287 288 287 286 285 281 279 281 281 282 293 289 291 289 288 287 288 287
292 291 301 307 288 289 290 291 292 290 292 292 291 293 293 290 287 290 290 292 293 292 291 291 286 279 279 283 284 284 286 285 285 283 280 278 281 289 289 289 285 282 284 285 284
291 284 291 299 296 291 288 288 288 293 293 294 292 293 290 289 291 289 289 292 290 291 294 294 286 284 280 282 283 282 284 283 282 277 277 277 279 284 286 281 281 282 285 284 283
288 283 288 284 287 289 290 288 286 285 291 292 289 290 289 286 286 287 286 284 287 287 285 285 279 283 284 280 280 279 278 279 277 278 274 277 277 281 279 278 280 282 285 283 282
284 283 287 284 286 283 287 284 285 286 287 286 286 287 288 285 285 281 281 281 280 282 280 281 275 277 274 279 278 276 277 277 277 276 276 276 275 278 280 280 279 280 283 282 282
285 287 282 279 280 279 280 282 280 282 283 284 282 282 280 282 282 282 283 283 282 280 277 277 275 272 270 276 272 266 273 275 276 275 275 273 272 275 275 277 278 279 280 281 281

GFSSW_sfc_thetae_054.txt.gz
Theta_e
320 320 321 321 322 323 323 323 322 322 322 322 323 323 324 324 323 317 307 314 316 330 320 313 313 312 313 311 309 308 303 299 299 298 301 305 303 305 306 306 306 308 309 310 311
319 320 320 321 321 322 323 323 322 322 321 321 322 322 323 323 315 309 321 326 332 327 312 310 308 310 309 308 309 306 302 300 303 303 302 303 304 305 304 305 306 307 309 309 310
319 319 319 320 320 322 323 323 323 322 322 321 321 321 322 322 307 306 326 329 333 322 312 311 311 309 305 308 307 305 301 303 303 303 303 302 303 305 304 302 306 306 308 310 308
318 318 319 320 320 322 323 323 324 323 322 322 321 321 322 315 299 306 331 330 330 314 311 310 308 306 304 302 306 301 304 304 304 304 303 302 304 303 304 305 309 310 310 310 308
319 318 319 320 320 322 323 324 324 323 323 322 321 321 315 303 304 323 331 330 314 311 309 308 306 305 301 302 302 301 303 304 304 304 304 304 303 303 303 307 309 309 307 307 308
319 318 319 319 320 322 323 323 323 323 322 322 321 320 306 297 312 323 322 311 312 310 308 308 306 307 303 301 301 301 301 302 303 303 303 300 302 300 304 307 306 306 306 307 307
319 319 319 319 321 322 323 323 322 322 322 321 322 315 303 305 314 318 312 311 310 310 306 307 308 306 304 300 303 301 298 300 300 300 299 300 297 297 305 305 303 304 306 306 306
319 318 318 319 320 321 322 322 321 321 320 321 321 312 301 308 315 311 309 307 309 309 307 308 308 306 303 303 300 297 296 294 298 297 299 300 294 302 304 301 302 304 305 306 307
318 318 319 320 320 321 321 320 319 322 321 321 312 303 300 311 306 308 308 305 307 306 308 306 307 302 301 297 295 295 292 293 294 298 297 298 295 301 302 302 301 302 303 304 305
319 318 319 320 320 321 320 315 317 318 318 315 309 300 302 300 306 305 306 306 304 305 304 303 302 298 297 295 290 294 292 293 291 297 296 294 294 298 300 300 300 301 303 303 304
319 319 320 320 321 322 312 308 309 307 305 303 303 301 301 305 307 304 305 304 303 301 297 298 295 293 297 298 297 294 292 291 294 298 295 294 295 297 299 300 299 300 302 303 303
319 320 320 320 321 320 309 305 302 303 301 304 302 300 301 304 300 302 305 301 299 296 296 294 292 298 296 294 293 293 291 291 295 296 292 294 293 297 299 299 301 301 301 303 304
320 320 320 320 320 316 307 304 309 306 300 301 300 299 300 302 300 300 302 300 298 294 294 295 297 296 293 293 291 292 290 291 291 293 295 292 294 295 299 299 300 301 302 303 302
320 320 320 320 316 314 308 307 308 305 299 299 295 298 301 300 295 300 301 299 296 294 294 294 295 293 292 291 293 289 293 292 290 289 288 292 287 295 297 298 299 300 302 302 302
320 320 321 320 317 314 308 307 307 303 288 295 294 303 301 296 297 297 301 299 294 293 294 293 291 291 290 292 293 292 292 290 290 289 287 290 286 294 294 294 296 299 302 303 302
319 320 319 316 314 312 307 305 303 296 287 294 295 294 294 295 295 297 297 299 297 294 293 293 294 294 294 292 293 293 292 290 289 288 284 290 288 291 293 294 296 299 301 303 300
316 318 316 318 313 310 307 308 294 288 297 290 291 294 294 293 293 294 293 293 292 290 290 293 294 294 294 292 292 292 290 285 285 284 284 288 285 290 295 296 298 298 298 297 298
311 316 315 317 314 314 314 302 287 293 295 299 294 294 296 297 295 292 291 292 293 292 291 289 287 291 293 294 293 292 292 286 279 282 286 289 285 291 298 299 298 295 295 296 295
312 314 314 317 313 315 307 291 291 295 299 298 298 295 296 296 296 294 293 294 296 293 290 290 289 292 291 294 295 292 287 293 287 288 284 288 292 297 298 294 294 295 296 295 295
308 308 309 317 316 311 300 293 294 299 300 298 292 295 290 292 292 291 292 294 293 294 294 293 286 294 294 292 292 291 292 285 286 280 280 285 286 288 293 291 292 292 293 293 293
305 298 303 315 314 303 292 293 297 299 300 296 294 294 293 290 293 291 291 295 295 291 293 291 290 290 291 288 289 288 286 287 286 286 281 280 284 295 291 290 290 290 290 290 290
301 292 305 314 298 298 293 295 296 295 298 297 297 296 294 293 291 290 290 294 297 297 292 295 289 286 288 295 294 292 290 290 284 283 285 283 284 297 295 292 287 286 287 287 287
296 296 304 307 290 291 294 293 295 294 294 294 293 295 295 291 287 291 292 295 296 295 293 293 286 283 285 288 290 288 290 289 289 287 282 280 283 294 293 291 286 285 287 286 286
294 289 294 299 299 293 290 290 290 296 294 295 293 295 292 289 292 288 290 294 293 291 291 293 287 284 281 284 287 284 286 287 283 278 280 281 282 286 287 285 284 284 284 286 286
293 288 291 287 290 292 292 290 288 287 293 295 290 291 290 286 287 287 289 286 288 286 285 286 281 284 285 282 281 281 280 281 278 279 276 278 279 283 281 280 280 282 282 282 284
287 287 289 287 287 288 288 287 286 288 289 287 287 287 288 285 287 284 283 284 284 283 282 283 278 278 276 281 280 277 279 279 279 279 278 279 278 280 280 280 280 280 281 281 282
289 290 287 283 284 284 284 285 284 286 284 286 285 284 283 285 285 285 285 285 284 282 281 279 278 276 273 278 275 271 277 279 278 279 278 274 278 278 277 278 279 280 281 281 282

GFSSW_sfc_thetae_057.txt.gz
Theta_e
320 321 321 322 322 323 324 324 323 323 322 322 323 323 324 324 324 320 310 317 318 329 323 315 315 314 315 313 313 313 303 300 302 301 302 307 304 309 310 307 309 311 310 312 315
319 319 320 321 322 323 323 324 324 323 323 322 322 322 323 323 317 312 322 325 332 327 315 312 310 312 310 310 311 307 303 302 306 305 303 305 305 306 305 305 306 308 312 314 313
319 319 319 320 321 322 323 324 324 324 323 322 322 322 322 322 311 309 328 330 334 324 315 314 313 311 307 309 309 307 301 305 306 306 306 304 304 307 304 302 306 306 309 311 312
318 318 319 320 321 322 323 324 324 324 324 323 322 322 322 318 300 311 332 330 331 317 313 311 310 306 304 304 308 303 305 305 306 306 305 303 306 304 305 305 309 310 311 311 310
319 319 319 320 321 322 323 324 324 324 324 323 322 322 318 306 305 324 330 331 318 313 311 309 307 306 303 304 305 303 304 305 306 306 305 306 303 304 304 308 310 310 310 309 310
319 319 319 320 321 322 323 324 323 324 323 322 322 320 311 302 314 322 323 319 314 312 310 310 307 308 304 303 302 304 303 303 304 304 304 302 303 304 305 308 307 308 308 309 309
319 319 319 319 321 322 323 323 323 322 322 321 322 318 306 307 316 319 317 314 314 313 309 311 310 306 307 303 306 303 299 302 303 303 302 302 298 300 306 307 305 306 308 309 309
319 319 319 319 320 321 322 323 321 321 321 321 322 314 305 310 316 313 312 311 313 312 310 310 310 307 305 306 303 299 299 295 301 301 301 300 295 303 306 304 304 306 307 308 308
319 318 319 320 320 321 322 321 318 321 320 320 315 308 304 311 307 310 311 307 309 309 309 309 309 305 304 298 296 299 293 296 299 302 300 299 296 303 306 304 302 304 305 306 307
319 318 319 320 320 321 321 315 319 318 319 317 311 302 304 303 308 307 309 309 306 306 304 304 303 299 299 296 290 295 296 298 297 301 300 298 298 301 303 303 303 304 305 306 306
319 319 320 320 321 322 318 313 310 309 307 307 306 305 304 307 309 306 307 306 306 303 298 301 296 294 298 300 299 298 295 294 298 301 299 297 297 298 302 303 303 304 305 305 306
319 319 320 320 321 322 316 311 305 305 304 312 308 305 305 306 303 304 307 301 300 297 300 296 294 300 302 298 296 296 294 293 297 300 295 295 295 298 301 302 303 303 304 305 305
320 319 320 320 321 321 313 308 311 308 304 307 304 303 302 304 304 305 304 302 300 298 297 296 300 300 298 297 295 296 294 294 293 296 297 295 294 299 302 303 304 303 304 304 304
320 319 320 321 318 320 313 311 311 309 300 302 299 300 302 302 298 303 304 302 300 297 300 298 300 297 296 293 295 291 295 294 292 291 289 295 286 295 300 301 301 302 303 303 302
319 319 320 321 319 316 314 312 311 306 288 298 296 306 303 297 299 298 303 301 297 297 296 295 294 293 292 294 295 293 294 293 292 291 291 291 287 294 297 296 298 301 301 301 300
319 319 320 317 315 312 308 307 307 296 287 294 297 297 296 297 296 299 299 302 300 296 296 296 297 295 296 296 295 295 293 295 294 291 285 292 291 292 294 296 298 298 298 298 298
317 318 317 319 313 309 306 307 294 289 299 293 293 297 296 296 295 296 295 294 294 291 292 295 294 297 296 294 295 293 291 287 286 286 286 294 289 292 298 300 297 296 297 297 298
313 317 315 318 315 312 311 302 287 294 296 300 296 298 296 298 298 296 296 295 298 296 293 290 289 295 296 295 294 293 293 287 280 282 287 293 287 293 300 297 297 298 298 297 296
313 316 315 316 315 316 306 292 291 295 300 300 299 296 296 299 298 298 297 296 298 298 291 290 290 296 295 298 296 294 289 295 287 287 284 287 292 297 300 295 296 296 296 294 293
312 310 311 318 315 312 299 293 295 301 301 300 294 297 292 295 294 294 294 297 295 296 298 293 286 295 295 295 295 293 293 287 287 279 279 284 287 289 293 293 293 292 292 292 292
305 299 306 316 314 304 292 294 297 301 301 297 295 295 295 294 295 293 293 296 297 296 296 294 291 290 294 292 290 290 288 288 288 286 281 280 284 295 291 290 289 289 290 290 290
303 294 308 314 299 299 294 297 297 297 299 298 297 294 293 293 291 292 291 294 298 298 293 296 291 285 289 295 296 294 291 291 284 282 286 284 284 298 296 289 289 288 289 289 289
298 299 307 308 292 294 297 294 296 295 296 295 293 295 295 291 287 291 291 297 298 297 294 295 288 282 285 290 293 289 291 291 290 288 283 280 283 296 295 292 287 286 286 287 289
297 291 297 300 300 294 292 292 291 297 295 295 293 294 292 289 292 289 289 294 294 293 291 293 288 284 280 284 286 283 287 289 287 281 282 282 284 288 290 288 285 284 285 285 285
296 292 294 288 291 293 293 292 289 289 295 295 291 291 289 286 287 287 290 290 290 288 288 289 284 286 286 286 285 283 283 283 281 282 277 281 281 284 287 283 282 283 283 283 283
291 289 291 291 293 292 292 289 289 290 290 289 289 290 290 287 288 285 286 286 286 286 285 284 281 282 278 282 282 280 282 282 281 281 280 280 279 286 282 282 282 282 281 281 282
293 293 291 288 288 288 289 289 288 290 286 288 288 287 285 287 288 287 287 287 287 284 283 281 280 278 275 280 276 273 277 279 280 282 280 276 279 280 280 280 280 281 281 281 282

GFSSW_sfc_thetae_060.txt.gz
Theta_e
320 321 322 322 323 324 324 325 325 324 324 323 323 323 323 324 324 321 312 319 320 330 326 314 313 312 313 312 312 310 298 294 297 297 298 302 299 301 303 300 302 304 302 305 311
320 320 321 322 322 323 324 325 325 325 325 324 323 323 323 322 316 311 322 326 332 329 314 311 309 310 307 308 308 302 298 298 301 300 298 301 299 300 299 300 300 301 305 308 310
319 319 320 321 322 323 324 325 326 325 325 325 324 323 323 320 312 311 327 328 332 326 316 313 311 310 304 306 305 303 297 301 302 302 303 300 299 301 299 298 300 300 303 303 305
319 319 319 320 321 323 324 325 325 325 325 324 324 323 323 318 298 316 331 332 332 318 313 310 308 305 302 300 305 299 303 303 304 304 302 300 302 299 300 301 304 304 305 304 303
319 319 320 320 321 322 324 324 325 325 324 324 323 323 317 308 306 325 328 330 320 314 309 307 304 304 299 301 301 299 301 303 303 302 302 303 300 299 300 304 305 305 305 302 302
319 319 319 320 321 322 323 324 324 324 323 323 322 321 312 301 314 322 323 321 313 311 308 308 305 305 302 300 298 300 300 300 301 301 301 299 299 299 301 302 302 303 302 302 303
320 319 319 319 321 322 323 323 324 322 322 322 322 318 308 306 316 319 317 314 313 311 308 309 308 304 303 300 302 300 295 298 299 299 299 299 295 296 301 302 301 301 301 303 303
320 319 319 319 320 321 322 323 322 320 321 321 322 315 303 312 314 314 313 311 313 312 310 309 309 305 302 303 300 295 294 289 297 298 297 296 290 299 302 300 300 300 300 301 302
319 319 319 319 320 321 321 322 318 321 320 320 316 311 302 313 308 310 310 307 309 309 309 308 309 302 301 294 291 292 287 291 295 299 297 294 291 298 302 300 300 299 299 300 301
319 319 319 320 320 321 322 322 318 318 319 318 312 302 304 303 308 308 308 309 306 305 304 303 300 295 294 291 285 289 289 292 291 297 297 294 293 297 300 299 298 297 299 299 300
319 319 319 320 321 322 321 315 308 306 308 306 306 304 304 307 309 306 307 305 305 302 295 298 292 290 293 295 294 292 291 290 294 298 294 293 293 295 299 299 298 298 298 298 299
319 319 320 320 321 322 320 311 306 305 301 311 311 309 306 307 302 304 306 299 299 294 297 293 290 296 299 298 295 292 290 290 294 297 293 292 292 296 297 298 298 296 297 298 298
319 319 320 320 321 320 315 309 311 309 301 308 307 306 305 304 303 304 303 301 297 295 295 292 296 300 297 294 293 292 290 291 290 292 292 290 289 292 298 298 299 299 298 298 296
319 319 320 320 317 319 313 311 311 309 297 301 300 301 301 303 298 303 304 301 299 295 297 296 297 295 294 293 293 289 292 291 290 287 283 290 280 289 294 294 296 296 295 294 295
319 319 320 321 318 315 311 312 310 305 286 299 297 306 302 297 298 298 302 299 295 295 294 293 292 291 291 293 294 291 292 290 289 286 285 286 281 287 292 291 292 293 294 294 294
319 319 319 318 316 311 307 307 306 294 285 292 297 296 295 296 296 298 298 299 298 294 294 293 293 292 292 294 293 293 290 290 288 286 279 286 285 286 288 290 290 292 293 294 293
318 318 317 319 312 309 307 308 294 289 300 292 292 295 294 293 294 295 293 291 290 286 287 291 292 293 294 290 291 290 286 281 279 278 279 288 285 287 293 294 293 292 292 292 291
316 316 315 317 310 311 311 300 285 294 296 299 296 297 292 296 296 294 293 291 294 293 289 287 286 291 294 293 290 288 288 281 275 277 280 286 281 288 292 294 295 294 292 291 289
316 316 314 315 313 314 305 289 291 295 299 299 298 293 293 297 297 295 294 294 295 294 288 286 287 292 293 294 293 289 285 290 283 278 276 282 287 292 293 292 292 291 290 288 288
311 310 312 317 316 311 299 290 294 300 301 299 292 296 293 295 294 294 294 293 293 294 295 291 283 290 290 291 290 289 290 283 283 274 270 278 279 283 288 289 289 287 287 287 287
305 300 306 316 314 304 292 292 297 301 301 296 294 293 295 293 294 292 292 293 294 293 294 292 288 286 290 288 287 286 285 286 286 283 277 276 279 289 286 286 285 286 287 286 286
300 293 306 314 298 299 294 297 299 298 300 298 298 295 294 293 289 290 291 293 297 295 290 292 289 283 286 292 293 291 288 288 283 280 280 281 281 289 287 287 286 285 287 286 287
297 298 308 307 292 293 296 295 297 296 296 296 295 296 296 291 286 289 290 296 296 296 292 293 286 278 279 285 290 287 288 288 288 285 280 278 280 293 291 285 285 283 283 283 283
297 290 297 299 300 295 294 293 291 297 295 297 295 295 292 289 291 288 289 292 292 291 292 295 288 280 276 281 285 281 284 286 284 279 279 280 282 285 288 287 283 281 281 280 281
296 292 294 288 291 294 294 293 290 290 294 294 291 292 290 286 286 286 289 289 289 289 288 289 283 284 285 286 283 282 281 282 280 280 276 279 279 283 285 283 279 280 281 280 280
292 289 291 290 293 291 292 289 289 290 291 289 289 290 290 286 286 283 285 285 284 284 284 284 277 278 276 280 280 278 280 281 280 281 280 280 279 284 279 280 277 279 279 279 280
293 292 289 289 287 289 289 289 290 291 287 288 289 288 285 287 288 287 286 286 285 283 281 281 276 271 269 277 275 269 276 278 279 280 279 275 276 277 277 278 277 277 279 279 280

GFSSW_sfc_thetae_063.txt.gz
Theta_e
320 321 322 323 323 324 325 326 326 326 325 325 324 324 323 323 322 320 310 316 318 332 324 310 309 307 307 305 306 303 292 289 291 293 293 298 297 299 301 298 298 301 300 303 307
320 320 321 322 323 324 325 325 326 326 325 325 324 324 323 323 316 309 321 330 332 330 310 306 304 305 301 302 303 297 291 293 296 294 294 296 295 296 296 296 295 298 301 305 307
320 320 320 321 322 323 324 325 326 325 325 325 324 324 323 320 307 309 329 329 331 327 312 308 307 305 299 299 300 298 293 297 300 299 299 297 298 298 295 295 296 298 300 300 304
320 319 320 320 321 323 324 325 325 325 325 324 324 324 323 314 292 314 329 331 330 316 310 305 303 299 296 295 300 294 300 300 301 301 299 297 298 297 298 300 301 301 301 301 301
319 319 319 320 321 322 323 324 325 325 324 323 323 323 313 303 303 321 327 328 318 312 306 303 299 299 295 295 296 294 297 300 300 300 298 299 297 297 298 302 301 302 301 300 300
319 319 319 319 320 321 323 324 324 324 322 322 323 321 306 297 313 322 321 318 311 307 304 303 301 301 297 296 293 295 296 297 298 299 298 297 295 296 299 298 299 299 299 298 299
319 319 319 319 320 321 322 323 324 323 321 322 322 316 305 302 313 317 315 311 310 307 304 305 304 300 299 295 299 297 293 295 296 296 296 297 293 294 298 298 298 298 297 300 301
319 319 318 319 320 321 322 323 323 320 321 322 322 312 299 308 308 311 311 308 309 308 307 306 305 302 299 299 297 292 290 286 294 295 296 294 289 295 298 296 299 298 296 298 299
319 318 318 319 319 320 321 322 322 319 321 321 312 307 298 312 305 307 306 305 307 306 305 307 304 299 298 292 288 288 284 287 292 296 294 291 288 295 298 297 296 294 296 298 298
319 318 319 319 320 320 321 323 320 317 317 318 313 298 301 300 305 305 304 306 303 303 301 299 296 292 291 288 282 285 284 288 288 294 293 291 290 294 298 294 294 293 295 296 296
319 319 319 319 320 322 319 311 305 303 305 302 301 300 301 304 306 304 305 302 302 299 292 294 289 287 289 290 290 289 288 286 290 295 291 291 291 294 297 295 294 294 294 295 294
319 319 319 320 321 322 317 306 303 303 299 307 305 304 305 305 300 302 304 298 296 292 293 290 287 293 294 294 293 291 288 287 291 294 291 289 289 294 296 295 294 294 294 294 294
319 319 319 320 320 319 314 308 308 305 298 304 307 305 303 304 300 300 301 299 294 292 292 289 292 296 295 293 291 289 288 287 288 289 290 287 286 290 294 293 294 293 294 294 293
319 319 319 320 315 316 310 308 309 306 293 298 300 300 300 302 297 302 302 299 296 292 292 291 296 294 293 292 292 287 292 290 288 285 282 287 278 287 289 290 290 291 291 291 291
319 319 319 321 314 312 309 309 307 303 285 297 296 304 300 298 297 297 300 297 293 293 292 291 290 289 289 291 293 289 291 288 286 283 283 284 280 284 288 287 288 289 290 290 290
319 319 319 318 317 310 306 305 305 294 285 293 294 294 293 294 294 296 295 297 296 292 291 292 291 290 291 292 292 292 288 287 285 283 278 283 283 283 285 287 287 289 289 289 288
318 318 317 319 312 309 311 309 292 286 298 290 290 293 292 290 291 292 290 289 287 284 284 288 290 291 292 288 290 289 285 279 278 276 278 285 282 285 288 290 289 287 287 287 287
317 317 316 316 311 311 312 300 285 293 295 295 292 292 289 291 291 291 289 287 290 288 286 285 284 290 292 291 289 286 286 279 273 276 279 284 280 285 290 290 289 288 287 287 286
316 315 314 311 311 313 304 287 289 293 299 299 297 290 290 293 293 291 289 290 292 291 287 285 285 290 291 292 292 287 284 289 282 273 274 280 284 289 289 287 287 287 286 285 285
312 311 311 314 314 310 296 289 293 300 300 299 291 295 291 294 294 292 292 293 293 294 293 288 283 288 288 290 289 288 289 281 281 270 268 277 279 281 285 284 285 285 284 285 285
307 302 308 315 314 303 291 291 295 301 301 296 294 293 294 292 293 293 292 292 293 291 292 290 286 284 287 287 287 286 283 284 285 282 275 272 278 286 286 285 284 284 285 285 285
301 295 304 314 298 298 293 296 299 297 301 298 297 294 293 294 291 291 291 291 295 293 288 291 287 279 284 290 292 289 285 286 282 279 279 279 280 288 286 285 285 285 286 285 286
297 297 307 307 292 293 296 296 298 296 296 296 295 296 296 292 288 291 291 294 295 292 291 292 283 274 277 283 287 285 287 287 287 284 276 278 279 288 287 285 285 283 282 281 281
296 289 297 299 300 295 294 293 293 298 297 298 296 296 292 290 292 288 289 292 291 292 294 294 286 278 274 280 284 281 283 284 282 276 277 279 280 286 287 285 281 280 279 279 279
294 290 294 287 291 294 294 294 292 290 296 297 293 293 291 287 288 287 289 288 288 290 288 289 281 285 280 282 282 280 281 280 278 280 275 279 278 281 283 280 278 278 279 279 279
290 288 291 287 291 292 293 290 290 292 292 290 289 290 291 287 286 282 285 285 285 284 284 284 276 277 273 281 280 277 279 279 279 280 279 279 279 282 278 279 276 278 278 277 278
292 292 288 287 286 287 288 290 289 290 288 289 290 287 286 286 286 285 286 285 285 282 281 279 276 270 268 276 274 268 275 277 278 279 278 274 278 275 276 278 277 276 277 277 277

GFSSW_sfc_thetae_066.txt.gz
Theta_e
320 321 322 323 323 324 325 326 326 326 325 325 325 324 324 324 322 317 305 313 316 331 325 308 307 305 305 303 304 300 290 287 289 290 292 295 294 297 298 295 297 299 297 300 304
320 320 321 322 322 324 325 325 326 325 325 325 324 324 324 323 313 307 321 328 333 331 308 304 302 303 299 300 301 295 289 290 294 293 293 295 294 295 295 294 294 296 299 303 306
319 319 320 321 322 323 324 325 325 325 325 325 324 324 324 320 303 305 330 328 331 326 309 306 305 303 297 298 298 296 291 295 298 298 298 296 295 296 293 294 295 296 298 299 303
320 319 319 320 321 322 323 324 325 325 325 324 323 323 322 312 291 310 329 330 330 314 308 303 301 297 295 293 297 293 298 298 300 299 297 295 297 297 295 299 299 299 299 298 298
319 319 319 320 320 321 323 324 325 325 324 323 323 323 312 300 302 318 326 326 315 310 304 301 298 297 293 294 294 293 295 298 299 298 297 297 296 295 297 300 299 299 298 297 297
319 319 319 319 320 321 322 323 324 324 323 322 323 321 303 297 313 321 318 314 309 305 303 302 300 300 296 295 293 293 295 296 297 297 296 295 293 295 297 296 297 298 298 297 297
320 319 319 319 320 321 322 323 324 324 322 322 322 315 304 302 312 317 316 311 308 305 302 303 302 299 297 294 297 295 292 294 295 294 294 295 291 293 298 297 296 297 295 297 297
320 319 319 319 319 320 322 323 323 323 321 322 322 310 299 307 308 311 310 306 307 306 306 305 304 301 298 298 295 291 289 286 292 294 294 293 289 295 297 294 295 295 294 295 295
319 318 319 319 319 320 321 322 322 323 321 321 310 304 298 311 303 306 305 304 305 304 303 306 303 297 297 290 287 286 282 285 290 295 293 290 288 296 297 294 295 292 293 294 293
319 319 319 319 319 320 321 323 321 317 316 317 313 297 301 299 303 304 302 305 301 301 299 298 294 291 290 286 282 284 283 285 287 291 292 291 289 293 297 295 291 291 291 292 292
319 319 319 319 320 321 319 311 304 302 305 301 299 299 300 303 304 302 303 301 301 297 290 293 288 286 288 290 288 287 286 285 288 293 289 290 289 294 295 292 291 291 291 291 291
319 319 319 319 320 321 317 308 304 303 299 306 304 301 303 303 299 301 303 296 295 291 292 289 286 292 292 291 290 288 286 286 289 292 290 288 289 289 290 290 291 291 290 290 291
319 319 319 319 320 318 313 309 306 304 299 303 306 304 302 303 299 300 301 297 294 291 291 289 291 294 293 290 290 288 286 286 287 288 288 286 286 287 289 290 291 291 291 290 289
320 319 319 319 316 315 311 309 308 305 292 296 300 300 299 302 297 300 302 298 294 291 291 290 293 293 291 290 291 287 291 290 288 284 280 285 278 284 286 287 288 288 287 287 287
320 319 319 320 312 311 311 308 307 303 284 297 296 303 299 300 295 295 299 297 293 293 293 291 290 289 290 292 292 289 290 287 285 282 282 282 279 282 286 284 285 286 286 286 286
319 319 318 317 317 312 307 307 306 294 284 292 294 293 292 293 294 294 294 297 296 291 290 292 290 290 290 291 291 291 288 286 284 282 278 282 281 281 283 285 285 285 285 286 285
319 318 317 319 312 310 309 308 293 286 297 291 288 291 290 289 290 292 290 288 287 285 284 287 289 290 291 288 289 288 285 280 277 276 278 283 280 281 286 287 286 284 284 284 284
318 317 316 317 312 311 312 301 284 291 294 293 291 290 288 290 289 290 287 285 289 287 284 284 283 289 291 289 288 286 286 280 273 275 279 282 279 282 286 287 286 286 285 285 283
317 315 311 310 312 315 305 290 289 294 299 298 295 288 287 290 289 288 286 287 290 289 286 284 285 289 290 291 292 286 283 287 281 269 274 280 281 286 286 284 284 284 284 283 283
313 311 310 312 313 310 297 292 293 300 301 299 291 294 290 292 290 289 288 291 292 291 292 289 283 287 288 289 288 287 289 282 280 270 268 277 278 280 281 282 283 283 283 283 283
308 302 311 313 313 302 287 290 294 301 301 297 294 293 294 292 294 292 293 293 293 290 292 289 287 284 287 285 285 284 282 283 284 280 273 271 277 284 285 284 283 283 284 284 283
303 296 308 314 296 297 292 295 299 298 301 299 297 295 293 294 292 292 292 292 294 293 288 290 285 279 282 287 290 287 284 284 278 277 277 278 278 287 287 286 285 284 285 284 284
298 297 306 306 290 291 295 296 298 296 297 297 294 295 296 293 289 292 293 295 295 293 290 291 283 274 277 283 286 285 285 285 284 282 274 275 277 286 285 284 285 284 283 282 280
296 290 296 299 299 295 293 292 293 299 297 298 296 296 292 291 294 289 291 292 293 294 295 295 284 277 275 279 282 280 282 283 281 275 277 279 279 282 283 283 282 281 279 278 278
296 290 294 289 292 295 296 295 292 291 297 298 294 294 292 288 289 288 288 287 288 292 290 291 284 283 283 283 284 282 282 282 279 279 276 278 280 283 282 281 280 278 277 277 278
290 289 291 288 291 293 293 292 292 294 294 291 292 293 294 289 289 287 288 286 285 284 285 285 277 278 274 281 281 279 280 281 281 281 279 280 279 282 277 276 276 277 277 277 277
291 291 288 288 286 288 289 291 290 292 290 291 292 290 290 291 289 286 287 287 286 283 282 280 277 270 265 275 272 268 274 278 277 278 278 274 278 276 276 277 276 276 277 277 278

GFSSW_sfc_thetae_069.txt.gz
Theta_e
320 320 321 322 323 324 325 326 326 325 325 325 325 324 324 324 321 315 301 311 316 330 323 306 304 304 304 302 302 297 289 285 288 289 290 293 294 296 295 295 295 297 298 298 303
320 320 320 321 322 323 324 325 325 325 325 325 324 323 323 323 311 306 318 328 332 330 306 302 299 302 298 299 300 293 286 288 291 293 291 295 293 294 295 293 292 295 297 301 306
320 319 319 320 321 322 323 324 325 325 325 325 323 323 323 319 300 300 329 328 330 325 307 305 303 301 296 297 297 294 290 293 295 296 295 294 294 294 292 293 294 295 296 298 300
320 319 319 319 320 321 322 324 324 325 325 324 323 323 322 310 290 307 328 327 328 313 306 302 300 296 293 292 296 293 297 296 298 298 295 294 295 294 294 297 297 296 297 296 294
320 319 319 319 320 321 322 323 324 324 324 323 323 323 309 299 301 316 326 325 312 307 302 300 297 296 292 292 293 291 294 296 298 297 295 296 295 294 295 298 297 296 296 295 295
320 319 319 319 320 320 321 322 323 324 324 323 323 322 302 296 312 318 315 310 307 304 302 300 298 299 294 293 292 292 294 295 296 296 295 294 291 294 295 295 296 295 295 295 294
320 319 319 319 319 320 321 322 323 323 324 322 322 314 302 302 311 317 313 308 307 304 301 301 301 297 296 293 295 294 292 293 293 293 293 294 290 292 296 295 293 294 293 294 294
320 319 319 319 319 320 321 322 323 323 323 321 321 308 298 306 308 310 309 305 306 305 304 303 302 299 296 296 293 289 288 286 291 292 292 292 289 295 294 294 291 291 290 292 292
320 319 319 319 319 319 320 321 322 323 321 320 309 302 297 310 303 305 306 303 303 302 302 305 301 296 295 289 286 285 283 285 289 293 292 289 288 296 295 294 290 290 290 291 291
320 319 319 319 319 319 320 322 321 316 316 316 312 297 301 298 302 303 301 304 300 299 298 297 293 289 289 286 283 284 282 283 285 290 291 289 289 293 293 293 289 288 288 289 289
320 319 319 319 319 320 320 312 304 301 305 301 300 299 299 302 303 300 302 301 299 295 289 292 287 286 288 289 287 286 284 284 287 292 289 289 289 287 290 290 288 288 288 288 288
320 320 319 319 320 321 319 309 305 302 298 305 303 301 301 302 297 299 302 296 295 289 290 288 285 291 291 290 289 287 284 285 288 291 290 287 287 287 288 288 288 288 287 287 287
320 319 319 319 319 318 313 311 306 305 298 302 304 301 302 301 298 298 300 296 292 289 290 288 291 293 291 289 287 286 285 285 287 287 287 285 283 284 287 288 288 287 287 287 286
320 319 319 319 315 314 312 317 307 306 291 294 299 300 299 301 296 300 301 297 292 290 290 289 292 292 289 289 289 285 290 290 288 284 281 285 278 282 284 284 285 285 284 284 284
320 319 319 320 311 311 313 308 306 303 283 296 296 301 299 299 295 295 299 296 291 291 291 289 290 289 289 290 292 289 290 288 285 282 280 280 279 280 284 282 283 283 284 284 284
319 319 319 317 316 313 308 307 306 293 284 292 293 292 292 293 294 293 294 296 296 291 290 291 290 290 291 290 292 291 287 286 283 282 277 282 281 280 281 284 283 283 283 284 283
319 318 317 318 311 310 310 307 292 286 296 290 288 290 290 288 290 291 290 289 288 285 284 287 288 289 290 287 289 287 285 279 277 276 278 281 280 282 285 286 285 283 282 283 282
318 318 316 318 313 311 309 298 284 292 293 291 290 289 287 288 288 289 287 286 289 287 284 283 282 289 290 288 286 285 285 280 273 274 278 281 279 283 284 286 285 284 283 283 282
318 316 314 313 313 313 303 291 289 292 295 292 292 287 285 289 288 287 285 285 288 288 286 283 284 289 288 290 290 285 283 287 280 269 275 280 281 284 284 283 283 283 283 281 281
313 311 309 312 314 310 299 293 292 299 300 296 290 291 284 287 287 286 286 288 290 290 291 288 283 287 287 288 287 287 289 282 280 271 269 277 278 280 279 280 282 281 281 282 282
309 303 310 312 312 302 292 291 294 300 301 297 293 292 292 291 291 288 288 290 290 288 291 289 287 284 287 285 285 284 283 283 283 280 273 270 277 283 283 283 282 283 283 282 282
305 295 310 312 296 296 289 293 298 298 301 299 298 296 294 294 291 291 290 292 293 293 288 290 288 283 285 287 289 287 284 284 279 276 276 277 279 284 286 285 285 284 284 283 283
300 299 306 307 289 290 295 295 298 297 297 296 294 296 296 293 288 293 293 295 295 292 290 291 285 279 280 284 285 285 285 284 284 281 275 273 276 284 284 283 284 283 283 283 283
297 292 297 299 299 294 292 293 293 299 298 298 296 296 294 292 293 290 291 292 292 294 296 294 284 279 278 281 283 281 282 284 282 275 274 278 276 280 282 283 283 282 281 280 278
295 291 293 290 291 295 294 293 290 291 297 298 294 294 291 289 290 289 290 287 288 292 292 291 284 283 282 283 284 281 279 282 279 281 280 282 281 283 284 283 282 281 277 276 277
290 290 292 289 291 293 294 292 291 292 294 292 292 294 294 289 290 288 288 287 286 285 287 287 283 283 281 281 283 281 283 283 283 282 280 281 281 284 283 278 276 278 276 276 277
293 292 290 288 288 288 289 291 292 294 293 294 295 292 291 293 290 289 290 290 289 285 285 283 280 278 276 274 275 275 278 281 283 280 282 276 281 274 274 277 277 276 277 277 277

GFSSW_sfc_thetae_072.txt.gz
Theta_e
320 320 321 322 323 324 325 325 326 325 325 325 325 324 324 324 321 312 299 309 314 328 321 305 303 302 302 301 300 295 287 284 286 288 290 292 293 294 294 293 294 295 299 297 304
320 319 320 321 321 322 324 324 325 325 325 325 324 323 323 323 310 303 318 328 331 329 304 300 298 300 297 298 298 292 285 286 290 290 293 293 292 293 294 292 292 293 296 298 303
320 319 319 320 320 321 323 324 324 325 325 325 323 323 323 318 299 297 328 326 330 322 305 303 302 300 295 297 297 292 288 290 293 294 294 293 293 293 295 291 291 292 294 295 294
320 319 319 319 319 320 322 323 324 325 324 325 323 323 322 308 290 305 327 326 329 309 304 301 299 295 292 293 294 292 295 294 296 296 294 292 294 294 293 293 294 293 294 294 294
320 319 319 319 319 320 321 322 323 324 324 325 323 323 307 298 301 314 326 324 309 305 301 299 295 294 290 291 292 292 293 295 296 296 295 294 294 293 294 293 295 296 295 293 292
320 319 319 319 319 320 320 321 323 323 323 324 323 322 300 296 311 316 313 307 306 302 300 299 297 297 293 292 291 291 292 294 295 294 294 293 290 293 291 292 294 294 292 292 292
320 319 319 319 319 320 320 321 322 323 323 324 322 313 301 302 311 315 310 305 306 303 299 300 299 296 295 291 294 292 290 291 291 291 292 293 289 290 292 293 292 291 290 291 291
320 320 319 319 319 319 320 321 322 322 323 322 321 307 298 306 310 310 308 304 304 304 303 302 301 298 294 294 292 288 287 285 290 291 291 290 288 291 293 292 289 289 288 289 290
320 319 319 319 319 319 320 321 321 322 323 320 307 301 298 309 303 306 305 302 302 301 301 304 300 294 294 288 286 285 283 284 288 291 290 288 288 291 292 290 288 287 287 288 288
320 319 319 319 319 319 320 322 322 315 314 315 311 297 302 299 301 303 301 303 299 298 297 296 292 289 288 286 282 283 281 283 284 289 289 287 289 289 290 288 286 285 286 286 287
320 320 320 319 319 320 318 312 304 301 303 300 300 299 299 301 302 300 302 300 298 294 289 290 287 286 288 288 287 286 283 283 286 290 288 288 287 286 289 287 286 285 285 285 286
320 320 320 320 319 320 317 308 305 302 297 304 304 301 301 301 296 298 302 296 294 289 289 287 284 291 290 289 287 285 283 283 286 290 289 288 285 286 287 286 286 285 285 285 285
320 319 319 319 319 317 313 310 307 304 298 302 303 301 302 300 297 296 299 296 292 288 288 286 289 292 290 287 286 284 283 283 285 287 286 285 283 283 285 286 286 285 285 285 284
320 319 319 319 313 313 310 316 310 306 292 294 298 302 299 300 294 300 300 297 291 289 289 288 291 291 288 288 288 283 288 288 287 284 281 284 278 281 283 283 283 283 282 282 283
320 320 320 319 311 310 312 312 306 303 282 295 296 300 299 298 295 294 298 296 290 290 291 289 289 288 288 290 289 287 290 288 286 283 280 280 278 279 283 280 281 282 282 282 283
319 319 319 317 316 313 308 309 309 292 283 292 293 291 293 293 293 294 294 296 295 290 289 289 291 291 290 290 291 289 287 285 282 281 277 282 281 279 280 283 282 282 282 283 283
318 318 317 319 311 310 311 308 292 284 295 290 288 290 290 288 289 290 290 289 288 284 283 286 288 288 290 287 287 287 285 279 277 275 277 280 279 283 284 285 284 283 282 282 282
318 317 317 319 313 310 310 299 284 291 292 290 289 288 288 288 287 288 287 286 289 287 284 283 283 288 289 288 286 285 285 280 274 274 277 281 278 283 283 285 286 285 283 282 281
318 317 317 318 313 312 303 290 289 291 295 290 289 285 284 287 287 285 285 285 289 288 286 283 283 287 288 289 290 285 282 286 279 270 274 279 281 282 283 282 282 282 282 281 281
314 313 313 317 314 309 299 294 293 297 299 294 289 289 284 285 286 286 284 286 287 290 292 289 283 286 287 289 288 286 289 283 281 273 270 277 278 280 279 279 281 281 281 281 281
310 304 309 315 313 304 293 294 295 299 300 294 292 290 287 286 287 284 286 288 290 289 291 290 287 283 286 284 285 284 283 283 284 281 274 271 276 282 283 282 281 282 282 282 281
306 296 309 312 298 294 291 293 297 297 301 298 297 295 293 292 290 287 287 291 293 291 287 289 288 281 283 286 288 286 284 286 282 277 277 277 277 283 285 285 284 283 283 282 282
301 299 306 307 292 288 293 294 297 297 298 297 295 296 296 293 289 292 292 294 295 292 290 291 285 276 281 285 285 284 284 284 284 282 276 275 276 284 284 284 284 283 282 282 281
298 293 297 299 299 293 290 289 292 299 297 297 295 296 293 290 293 290 292 292 294 294 296 294 286 280 279 281 282 280 283 284 284 280 278 279 276 280 281 282 283 283 283 282 281
295 292 293 289 292 294 294 292 290 291 297 298 293 293 292 288 289 288 291 288 289 295 293 291 284 283 283 285 285 281 279 282 281 282 281 282 281 283 285 284 285 285 283 281 279
288 289 292 289 291 293 294 291 290 292 293 290 290 293 293 286 289 287 289 289 288 286 289 290 284 285 282 282 284 283 284 283 283 283 280 280 281 283 285 282 281 281 280 279 278
293 292 291 287 286 288 290 291 292 294 295 295 293 292 291 292 292 287 290 291 290 287 286 285 282 281 279 276 277 277 279 283 284 282 284 280 285 280 279 282 282 280 279 278 277

GFSSW_sfc_thetae_075.txt.gz
Theta_e
320 320 320 321 322 323 324 325 325 325 325 326 324 324 324 324 321 310 299 308 314 327 319 305 305 304 304 303 302 298 289 286 289 290 293 296 297 298 298 298 299 300 300 300 304
319 319 319 320 321 322 323 324 324 325 325 325 324 323 323 323 309 302 317 328 331 327 304 301 300 301 299 301 300 293 288 289 292 293 294 296 296 297 297 297 297 298 299 299 298
319 318 318 319 320 321 322 323 324 324 325 325 324 324 323 318 299 297 327 327 330 319 305 304 303 301 297 298 298 295 290 291 294 295 296 296 296 297 296 295 297 297 295 296 296
319 318 318 318 319 320 321 322 323 324 324 324 324 323 322 306 289 305 327 326 328 308 305 302 300 296 294 293 297 292 295 295 298 297 296 295 297 296 296 296 295 295 295 294 294
320 319 319 318 318 319 320 321 322 323 324 324 324 323 306 300 302 314 326 323 308 305 301 300 296 296 292 293 294 294 294 296 297 296 296 296 295 295 292 294 295 295 294 293 293
320 319 319 318 319 319 320 321 322 323 323 324 324 321 301 296 311 316 312 307 305 302 300 300 298 298 294 293 293 293 293 294 295 295 295 294 293 295 293 294 293 293 291 291 291
321 320 319 319 319 319 320 320 321 322 323 324 322 312 300 302 313 313 309 305 305 303 300 301 300 298 296 293 295 294 291 292 293 293 293 294 291 291 292 293 291 290 290 290 290
321 320 319 319 319 319 320 320 321 322 323 323 321 305 299 305 311 312 307 304 304 304 303 302 301 298 296 295 292 290 289 288 292 292 292 293 289 291 292 292 289 289 288 289 289
320 319 320 320 319 319 319 320 321 322 322 320 306 300 298 309 303 307 305 303 302 301 302 303 300 295 295 289 287 287 285 285 289 292 292 291 290 290 292 290 288 287 287 288 288
320 320 320 320 319 319 319 321 321 315 314 314 309 298 301 299 301 303 302 303 300 299 298 297 292 290 287 287 283 284 283 284 286 290 290 289 289 288 289 288 286 286 286 286 287
320 320 320 320 320 319 317 312 304 300 305 299 299 298 298 300 302 300 302 300 298 295 291 291 288 287 289 289 288 287 285 285 287 290 290 289 288 286 288 287 286 285 285 286 286
320 320 320 320 320 320 315 308 305 302 297 303 303 301 302 301 296 298 302 296 294 289 289 287 285 291 291 289 288 286 284 285 287 290 289 288 288 286 287 286 286 285 285 285 285
320 320 320 320 319 317 310 309 307 304 297 301 302 301 302 300 297 296 299 296 292 288 288 286 289 291 290 287 287 285 284 284 286 288 288 286 285 284 285 285 286 286 286 285 285
321 320 320 320 314 313 309 315 309 306 291 293 298 301 298 299 294 299 300 297 292 289 288 287 290 290 288 286 288 283 288 287 286 285 282 286 281 282 283 283 284 284 284 284 284
320 320 320 319 313 309 312 317 311 306 282 294 295 299 298 297 295 294 298 296 290 290 290 288 288 288 287 289 289 288 289 287 286 284 282 282 281 282 283 281 282 283 283 284 283
319 319 319 317 315 312 311 312 311 291 282 291 292 291 293 292 292 293 294 296 295 290 289 289 291 290 290 290 290 289 287 286 283 282 277 283 284 281 280 284 283 283 283 284 283
319 318 317 318 311 310 315 311 293 284 295 290 288 290 290 288 288 290 289 288 288 284 284 286 287 288 290 287 287 287 286 281 277 276 277 281 280 285 285 286 286 284 283 284 283
318 317 316 319 313 313 311 300 284 290 291 290 288 287 288 288 287 288 287 285 289 288 284 283 283 287 288 290 287 285 287 281 274 274 277 281 278 284 284 286 288 286 285 283 282
317 316 315 317 312 313 304 291 289 292 294 289 289 285 285 288 289 285 284 285 289 289 288 284 284 287 287 288 291 284 283 288 280 271 274 279 282 283 283 283 284 283 283 282 282
312 311 311 319 313 309 299 294 294 297 296 294 290 290 284 285 286 285 283 287 288 291 293 289 283 285 287 288 287 286 289 283 282 275 271 277 279 282 280 279 282 282 282 282 282
310 304 310 316 313 303 293 294 298 300 301 294 294 292 289 286 288 285 287 288 288 288 293 290 288 282 286 284 284 284 283 284 285 283 276 272 277 284 283 283 281 283 283 283 282
306 297 309 314 300 297 296 297 298 297 300 299 297 296 293 290 287 288 287 289 291 290 288 290 287 280 282 287 288 286 284 285 282 277 278 277 279 284 284 285 284 284 284 283 283
301 301 307 309 293 293 292 293 296 296 298 297 296 297 297 292 287 289 288 293 293 290 289 291 286 281 282 284 284 284 284 284 284 283 277 279 279 284 284 284 285 283 284 283 282
296 293 298 299 300 296 292 291 291 297 297 298 296 297 294 292 294 291 291 293 294 294 296 295 286 283 281 281 283 281 283 283 284 281 279 282 278 281 282 283 284 284 284 283 283
294 291 293 289 293 295 294 291 290 290 297 296 293 292 292 286 288 287 291 288 291 295 293 292 285 285 280 282 282 278 280 282 281 283 283 281 281 283 285 284 285 285 284 283 282
289 289 292 289 290 293 294 291 290 292 294 292 290 291 292 286 288 285 288 288 288 288 290 291 284 284 282 284 285 281 283 282 282 283 281 281 282 286 287 285 285 285 284 282 283
293 293 290 288 286 286 290 292 291 294 295 293 293 291 290 291 294 293 293 293 292 288 287 286 284 283 279 279 279 279 281 283 283 282 285 280 285 282 282 285 286 285 284 284 283

GFSSW_sfc_thetae_078.txt.gz
Theta_e
319 320 320 321 322 323 324 325 325 325 325 326 326 325 325 324 322 316 307 312 317 327 321 312 312 311 313 310 309 305 301 296 297 298 300 303 302 304 304 304 305 304 305 303 306
319 319 319 319 320 322 323 324 324 325 325 325 325 325 325 324 314 307 319 328 331 327 311 309 307 308 308 308 308 304 300 297 299 302 301 303 303 304 303 303 302 303 304 304 306
319 318 318 318 319 320 322 323 324 324 324 325 325 324 323 321 308 304 327 328 331 321 312 311 310 307 304 306 305 302 299 299 299 302 303 302 302 304 303 301 302 302 302 302 304
320 319 318 318 318 319 320 322 323 323 324 324 325 324 322 314 298 310 327 326 328 314 311 309 307 303 302 300 304 299 301 301 302 303 302 302 303 302 302 300 300 301 301 301 301
320 319 319 318 318 319 320 321 322 323 323 324 325 323 314 309 308 318 326 326 313 311 309 307 304 303 299 300 301 300 301 302 303 302 302 301 301 301 298 299 300 299 299 299 300
320 320 319 319 319 319 320 320 322 322 323 324 325 321 310 303 317 321 316 311 311 310 307 307 305 305 301 300 300 301 300 301 302 301 301 299 299 300 297 299 298 298 297 298 298
321 320 320 319 319 320 320 320 321 322 323 324 323 315 308 309 318 318 312 310 310 309 306 307 307 304 304 299 301 300 298 301 301 299 299 301 296 296 298 298 296 296 296 296 296
321 320 320 320 320 320 320 320 321 322 323 323 320 311 306 310 319 315 313 310 310 310 308 308 308 305 303 301 299 297 297 296 299 298 298 299 297 296 297 298 296 295 295 295 295
320 320 320 320 320 319 320 320 321 322 322 320 313 309 304 313 308 314 312 308 307 307 307 307 307 302 301 298 296 296 295 294 297 298 297 297 296 295 296 297 296 295 294 294 295
320 320 320 320 320 319 319 321 322 319 316 316 312 305 307 303 305 309 308 309 305 305 304 303 302 299 297 296 292 294 292 293 295 297 296 296 297 294 294 295 295 294 293 293 293
320 320 320 320 320 320 319 318 308 305 309 305 305 304 303 304 306 304 306 305 305 303 299 300 297 294 297 299 299 296 294 294 295 296 296 297 298 295 294 293 293 293 292 292 291
321 320 321 321 321 320 319 311 310 306 302 307 307 305 306 305 300 302 306 302 300 297 296 295 293 299 299 297 295 294 294 293 295 295 295 296 295 295 293 293 294 292 292 292 291
320 320 320 321 320 318 314 312 313 311 305 305 306 305 306 304 302 301 304 301 298 293 294 295 297 297 295 292 292 293 293 294 293 293 294 293 293 292 290 290 291 291 291 291 290
321 320 320 320 314 314 312 317 312 312 298 300 302 305 302 305 300 303 305 301 296 295 294 295 298 293 292 292 294 291 294 294 292 291 290 293 288 292 291 288 288 289 289 289 288
320 320 320 320 313 311 314 318 315 310 286 300 300 304 301 301 299 297 302 300 297 294 295 294 291 292 292 293 294 293 293 293 292 291 291 290 288 293 287 286 287 288 289 289 288
319 319 320 317 315 314 315 316 313 292 283 296 297 296 296 297 295 297 298 301 299 294 294 294 295 295 295 293 294 293 292 291 290 290 284 290 289 294 287 289 288 288 289 288 286
318 318 317 319 312 313 318 311 293 284 298 294 293 294 296 293 293 294 293 294 293 289 290 293 293 294 294 293 292 293 291 286 284 282 284 287 288 293 293 291 291 288 288 288 287
318 317 316 318 315 315 315 301 287 292 295 294 293 293 293 293 294 293 292 291 295 294 291 290 288 292 295 296 293 291 294 288 282 281 286 284 283 291 290 292 293 291 290 288 286
317 317 316 317 314 316 305 292 291 295 298 293 291 290 291 292 294 291 292 293 295 295 291 289 289 292 291 294 297 290 287 294 286 279 282 287 289 289 288 289 290 289 288 287 286
314 312 312 315 315 311 300 294 296 301 297 294 293 294 292 290 289 290 291 295 295 295 298 294 289 291 291 294 293 293 295 286 287 281 280 286 285 290 285 286 287 287 287 286 286
311 302 314 315 313 303 292 295 299 304 301 295 295 295 293 288 290 288 294 295 296 294 296 295 292 289 289 289 290 288 288 290 291 288 284 282 286 291 291 289 287 287 288 287 285
307 296 314 314 298 299 295 298 299 298 301 299 298 297 296 291 288 289 292 296 296 295 290 296 291 287 288 290 292 294 292 290 286 283 286 285 287 288 289 291 289 288 288 288 287
300 301 309 311 293 294 298 298 300 298 298 297 296 298 299 296 290 292 294 298 293 294 293 294 287 284 285 288 289 288 289 291 292 289 286 284 288 288 289 289 290 289 288 288 287
296 293 300 303 302 297 295 294 293 298 298 299 297 298 295 294 297 293 291 294 295 294 296 297 289 288 287 288 290 286 288 289 289 285 286 286 290 287 286 287 288 289 289 288 287
295 290 292 290 294 296 297 296 292 292 296 300 295 295 295 291 292 291 293 290 292 296 295 293 285 288 286 286 287 285 287 287 286 288 286 289 289 290 289 288 289 290 289 288 286
291 290 292 287 290 290 294 293 293 294 294 292 292 294 295 291 291 287 289 288 288 290 292 291 285 286 285 286 286 285 287 288 288 289 290 290 288 294 293 291 291 290 288 287 287
295 294 292 289 287 286 288 291 292 295 295 297 296 293 291 294 297 296 295 293 291 288 288 285 285 284 283 283 283 281 285 287 288 289 289 285 291 292 289 289 292 291 289 288 287

GFSSW_sfc_thetae_081.txt.gz
Theta_e
320 320 321 321 322 323 324 324 325 325 325 325 326 326 325 325 324 319 310 314 318 328 320 314 314 313 314 312 312 310 302 298 298 299 302 306 304 307 308 306 307 307 307 306 309
320 319 320 320 320 322 323 324 324 324 325 325 326 326 325 324 318 310 319 328 330 329 313 310 308 309 309 309 310 306 301 300 302 303 303 305 305 306 305 305 304 305 307 308 309
320 319 319 319 319 320 322 322 323 324 324 325 325 326 324 322 312 309 325 328 330 321 313 312 312 309 305 307 307 305 300 301 301 304 305 304 304 306 304 303 305 304 305 306 307
320 319 319 319 319 320 321 322 322 323 324 324 325 325 322 317 300 313 326 327 329 316 313 311 309 305 303 302 306 301 303 303 304 304 304 303 306 304 305 304 304 304 304 305 305
321 320 319 319 319 319 320 321 322 323 323 324 325 324 318 310 309 320 326 326 315 313 310 309 305 305 301 302 303 302 303 304 305 305 304 304 303 303 303 303 303 303 303 303 303
321 320 320 319 319 320 320 321 321 323 323 323 325 322 314 303 318 321 317 314 313 312 309 309 306 306 303 302 302 303 302 303 304 304 304 301 303 302 302 303 301 301 301 301 301
321 321 320 320 320 320 320 320 321 322 322 323 324 317 311 308 319 320 314 312 312 311 308 309 309 305 305 302 304 303 299 303 304 304 302 303 299 299 302 302 300 300 300 300 300
321 320 320 320 320 320 320 320 321 321 323 323 321 315 308 312 320 316 315 312 312 312 310 311 310 307 305 304 302 300 301 298 303 301 301 301 298 301 301 300 300 300 300 299 299
320 320 320 320 320 320 320 320 320 322 321 320 316 312 306 314 310 316 316 311 310 310 310 309 309 305 303 300 299 300 295 298 300 302 300 299 300 300 300 300 301 301 300 299 299
320 320 320 320 320 320 320 320 322 321 317 317 314 306 309 305 308 313 312 312 307 307 305 305 304 301 300 299 293 296 297 298 297 300 299 298 298 299 299 299 300 301 300 298 298
321 320 320 321 321 321 320 319 311 308 311 308 307 307 306 306 309 308 309 307 308 306 300 303 299 296 299 301 301 300 298 297 300 301 298 299 299 302 299 298 300 299 299 298 296
321 321 321 321 321 321 319 314 312 310 303 310 309 308 309 307 301 305 309 304 303 299 302 297 295 301 303 302 300 299 296 296 300 301 296 298 298 302 300 298 299 299 298 297 295
321 320 320 321 320 318 319 316 316 314 307 309 310 307 308 305 303 303 305 305 301 299 298 297 300 301 300 297 296 296 295 295 296 298 297 296 294 298 301 298 297 298 298 297 295
321 320 320 320 314 316 314 319 317 315 299 303 303 306 306 307 302 309 307 304 299 297 299 298 302 297 296 295 296 293 299 297 296 294 290 297 288 298 300 293 293 294 294 294 293
320 320 321 320 316 314 317 319 315 313 287 303 302 307 305 303 301 300 305 302 298 297 297 296 295 294 294 296 297 295 297 296 295 293 293 294 290 294 297 291 292 293 293 292 291
319 319 319 317 315 316 319 317 314 294 285 298 301 298 298 300 298 299 299 302 301 298 299 297 298 297 297 296 297 297 295 293 293 293 286 292 292 293 295 294 296 293 293 292 290
318 318 317 319 311 316 319 312 293 285 300 296 296 297 299 297 296 297 295 294 294 290 291 295 296 298 297 293 294 295 292 287 286 285 284 292 292 294 298 296 298 293 292 291 290
316 317 317 319 317 317 314 301 286 295 297 298 297 296 295 297 297 295 295 294 297 296 293 292 290 296 297 296 294 292 293 288 283 285 288 288 286 293 294 297 297 296 293 291 289
316 316 316 318 316 317 306 291 290 296 301 298 295 293 294 296 297 295 295 296 299 297 291 293 293 296 297 298 298 294 290 296 288 284 285 290 292 296 292 292 294 293 292 290 288
313 311 310 317 317 312 300 293 294 302 302 300 294 297 294 294 292 294 295 299 297 300 300 296 290 295 295 295 296 296 298 287 288 282 282 289 291 293 289 290 292 291 291 290 289
310 302 313 319 315 304 293 293 299 304 304 296 296 295 296 295 294 294 296 300 300 299 299 297 293 291 291 291 292 289 289 292 293 290 285 285 290 295 296 293 291 291 291 290 288
306 296 315 315 299 299 294 297 300 301 305 301 301 299 297 296 292 294 294 298 301 298 293 297 293 287 291 296 296 296 292 292 286 285 289 288 290 292 293 296 294 292 292 291 289
298 300 313 312 292 292 298 298 300 299 299 299 298 300 300 297 290 292 295 302 301 296 295 297 288 285 287 290 291 287 292 294 294 290 286 284 289 291 292 293 294 292 292 291 288
296 292 299 303 303 296 294 294 295 303 300 300 298 300 297 295 297 294 295 299 299 301 299 298 289 287 287 292 293 287 289 291 291 286 287 288 291 290 291 291 292 292 292 290 289
295 289 293 290 294 296 297 295 293 294 298 300 296 298 296 292 293 293 296 296 293 295 294 295 285 287 290 293 289 290 289 289 287 290 286 290 291 295 294 292 292 293 292 290 288
292 289 291 287 289 289 294 293 292 294 295 293 294 296 297 293 294 292 295 294 292 292 291 293 286 288 286 290 289 286 289 291 290 290 290 292 291 299 297 293 291 291 291 289 288
299 295 292 289 286 286 288 289 292 293 296 297 296 296 294 297 300 301 300 296 294 290 289 287 286 284 282 286 284 281 286 289 290 292 291 287 292 289 288 290 292 291 290 289 289

GFSSW_sfc_thetae_084.txt.gz
Theta_e
320 320 320 321 321 323 324 324 325 325 325 325 326 327 327 326 324 321 312 315 320 328 321 313 313 313 312 311 311 307 297 294 294 295 296 301 299 301 302 299 301 303 301 302 304
320 320 320 320 320 321 322 323 324 324 325 325 325 326 327 324 318 313 319 329 331 329 313 310 308 308 305 307 307 301 297 296 298 299 297 301 300 301 298 300 298 301 303 305 306
320 319 319 319 320 320 321 322 323 324 324 324 325 326 326 321 313 312 326 329 330 322 313 311 311 308 304 304 303 301 296 298 298 302 302 301 299 301 297 297 298 299 301 302 303
320 319 319 319 319 320 321 321 322 323 324 324 324 325 324 317 300 315 327 328 329 315 312 311 308 304 301 299 303 297 301 300 303 302 301 299 301 298 299 297 301 300 301 302 301
321 320 320 319 319 320 320 321 322 323 323 324 325 325 318 309 309 319 325 326 316 313 310 309 304 303 299 299 300 298 300 302 302 302 301 302 299 299 298 300 301 301 302 300 300
321 320 320 320 320 320 320 321 321 322 322 323 325 324 314 302 318 320 317 315 313 310 308 307 305 304 300 299 298 300 300 301 302 301 302 299 299 299 298 300 299 300 299 298 299
321 321 320 320 320 321 321 321 321 322 322 323 324 318 310 307 319 318 313 312 312 310 308 309 307 303 303 299 302 300 296 300 300 300 299 300 296 296 298 299 298 298 297 298 297
321 321 320 320 320 321 321 321 321 321 322 323 322 315 306 314 318 316 315 312 312 311 311 310 309 306 303 302 300 295 296 292 299 300 298 297 292 299 299 297 296 296 295 297 297
320 320 320 320 320 320 320 321 320 321 322 322 315 312 305 315 311 316 315 310 309 309 309 309 309 302 300 294 293 295 289 293 296 299 297 295 293 296 298 297 296 296 296 296 295
320 320 320 320 320 320 320 321 321 320 319 317 314 305 308 305 309 313 312 312 308 306 304 303 300 296 295 293 288 291 290 293 292 296 296 293 293 296 296 296 295 296 295 295 295
321 320 321 321 321 321 319 319 311 307 311 307 307 306 307 305 310 309 310 307 307 303 296 299 294 292 295 297 298 296 294 292 295 297 294 293 294 296 296 295 294 295 295 294 294
321 321 321 321 321 321 318 313 312 309 302 310 308 308 310 307 301 305 308 302 301 296 299 295 291 298 300 300 297 295 292 292 295 298 293 293 293 297 296 295 296 297 295 294 291
321 320 321 321 321 317 316 317 316 315 305 309 310 308 308 305 302 302 304 303 299 297 297 294 297 301 298 296 294 293 292 292 292 295 294 290 289 293 297 296 296 297 296 295 291
320 320 321 321 315 316 313 321 318 316 298 302 304 307 307 306 301 307 306 303 299 295 297 296 300 298 295 295 295 290 296 295 293 290 285 292 283 290 294 293 294 293 293 292 291
317 319 320 320 316 313 318 319 316 314 285 303 301 308 307 302 301 299 304 301 296 296 296 294 294 293 293 294 296 292 295 292 292 289 288 288 285 288 295 292 292 292 292 291 290
314 317 319 318 315 316 320 316 313 295 283 297 299 298 297 300 298 299 299 300 300 296 296 295 297 294 294 294 295 295 292 291 289 287 281 287 288 289 292 293 293 293 292 291 288
312 315 316 319 311 318 317 311 294 285 300 295 295 298 297 296 296 296 294 292 291 287 288 293 294 295 296 291 292 292 288 282 280 279 280 289 287 290 292 294 295 292 291 290 288
312 315 315 318 318 317 313 301 284 292 296 300 298 297 294 297 296 294 293 290 294 293 289 288 287 293 295 293 290 289 289 283 277 279 281 284 282 289 291 293 294 294 292 289 287
311 315 312 316 317 316 305 290 288 294 300 297 296 293 293 296 295 293 292 292 295 295 289 289 290 294 295 295 295 290 285 293 286 278 280 285 288 291 290 290 292 291 290 287 286
305 310 308 317 317 311 300 293 295 301 302 301 292 295 292 293 291 292 292 296 295 297 298 294 288 293 291 293 293 292 294 285 287 280 278 282 284 288 286 287 289 289 288 286 286
305 301 310 318 315 303 292 294 297 303 302 298 295 295 295 293 292 291 293 297 298 297 298 294 292 288 289 288 290 290 288 290 291 287 282 278 284 287 290 290 289 289 289 287 286
303 293 312 315 297 298 292 295 299 300 303 300 299 298 296 295 292 292 292 296 299 298 292 295 293 287 289 293 292 292 291 291 285 283 285 284 286 290 289 291 291 290 290 288 286
296 299 311 310 291 291 296 296 298 298 298 298 297 299 299 296 291 293 294 299 298 296 294 295 288 284 284 290 290 286 289 292 292 288 285 283 285 289 290 289 291 289 289 288 286
296 290 299 303 300 295 292 292 294 300 298 299 298 300 297 295 297 293 293 297 298 297 299 299 288 286 284 286 289 284 288 289 289 285 285 287 289 289 288 288 290 289 290 288 286
295 290 291 289 291 295 295 294 291 292 298 299 296 296 295 292 293 293 295 294 294 295 295 295 286 288 289 290 290 288 286 288 287 288 285 288 288 293 295 290 291 291 290 288 286
291 290 291 288 287 289 292 292 292 293 294 293 293 296 297 293 293 288 294 294 292 292 291 292 284 288 287 290 288 286 289 290 289 289 289 289 289 292 292 291 289 291 290 288 286
297 296 292 289 286 285 288 288 289 293 295 297 295 295 294 296 299 299 298 298 296 291 288 287 287 284 282 285 286 282 287 288 290 291 291 286 290 288 288 289 289 289 289 289 288

GFSSW_sfc_thetae_087.txt.gz
Theta_e
320 320 320 321 321 322 323 324 324 324 324 325 325 326 326 327 324 320 309 315 319 327 320 309 307 306 305 304 304 300 291 288 289 290 293 297 296 298 299 298 299 300 298 300 303
320 319 320 320 320 320 321 322 323 323 324 324 324 326 326 326 316 312 320 329 329 327 309 304 302 302 299 301 301 295 290 291 293 293 293 297 297 298 296 296 296 297 300 303 303
320 319 319 319 319 320 321 321 322 323 324 324 324 325 325 323 310 310 326 329 329 322 310 306 305 303 297 298 297 296 291 294 295 298 298 297 296 299 296 293 295 297 298 300 300
321 319 319 319 319 319 320 321 322 323 323 323 324 325 324 315 294 312 326 328 328 313 309 305 303 297 295 294 298 292 297 297 300 300 298 296 298 296 296 296 299 299 300 299 299
321 320 320 319 319 320 320 321 322 322 322 323 324 324 314 303 305 316 324 323 314 309 305 303 298 297 293 294 296 293 296 299 300 299 298 299 296 296 295 296 298 300 299 298 298
321 320 319 319 320 320 320 321 321 322 322 323 324 323 309 297 315 317 316 312 310 306 303 302 300 299 296 295 294 295 297 297 299 299 299 297 296 297 295 297 297 298 296 296 297
321 320 320 320 320 320 321 321 321 321 321 322 323 317 306 302 314 312 311 308 308 306 303 304 303 299 298 295 298 296 293 296 297 297 297 297 294 294 296 296 296 296 295 296 296
321 320 320 320 320 320 321 321 321 321 321 323 323 312 301 311 312 313 310 308 308 307 307 305 304 302 299 298 296 292 291 288 296 296 296 296 290 297 296 295 294 294 292 294 295
320 320 320 320 320 320 321 321 321 321 322 323 311 306 300 313 309 313 310 306 306 306 305 307 304 298 296 291 289 290 286 288 293 296 295 293 290 294 295 294 293 292 292 293 293
320 320 320 320 320 320 320 321 321 319 319 317 313 300 305 302 307 311 308 307 304 302 300 299 297 292 291 289 284 287 287 289 290 294 292 291 291 293 294 294 293 292 292 292 292
321 320 321 320 321 321 318 314 307 304 308 302 303 302 303 304 307 306 307 305 303 299 293 296 290 288 292 292 293 292 289 288 291 295 292 291 291 292 294 292 291 292 292 292 292
321 321 321 321 322 322 315 310 308 306 299 307 306 306 307 305 299 304 306 299 298 293 295 291 288 295 296 295 293 292 289 289 292 295 292 291 291 293 293 294 294 294 293 292 289
320 321 321 321 321 318 313 313 313 311 302 306 308 306 306 304 300 300 303 300 296 294 293 290 294 298 296 293 292 291 289 288 290 293 291 289 288 290 294 295 294 296 294 293 290
316 318 321 321 315 315 313 319 314 313 295 298 304 305 303 304 299 306 304 301 297 294 295 293 297 295 292 292 293 288 294 293 292 288 283 289 283 288 291 291 293 295 292 290 289
313 315 319 320 315 312 316 318 316 312 285 300 300 306 304 301 299 298 302 300 294 294 295 291 292 292 291 292 294 291 293 290 290 286 285 286 283 287 293 292 292 294 291 290 289
312 312 316 318 316 316 319 317 313 295 283 295 297 296 297 298 296 297 297 299 299 294 293 292 294 293 293 292 293 294 291 290 287 285 280 285 285 288 289 292 293 292 292 289 289
311 311 313 319 311 318 317 311 294 285 298 292 292 295 294 293 293 293 291 290 289 286 286 290 292 292 294 290 291 291 287 281 279 277 279 285 284 289 293 293 294 292 290 288 289
310 311 313 314 317 317 313 299 283 290 295 297 295 294 291 294 293 292 290 287 291 290 287 285 285 291 293 293 289 288 288 281 275 277 279 284 281 288 292 292 292 293 292 288 287
310 309 312 313 316 316 305 291 288 291 298 295 294 290 290 293 292 290 289 288 291 292 287 286 287 291 292 294 293 287 284 292 284 274 277 283 287 292 289 288 288 288 287 285 285
303 303 306 312 316 311 298 291 293 299 300 298 292 293 289 291 290 289 288 292 293 294 295 292 287 290 290 293 292 290 292 284 286 278 276 280 282 286 286 288 287 286 285 284 283
301 297 305 315 314 301 289 292 296 301 301 298 295 294 293 290 291 289 290 293 295 294 296 293 290 286 288 287 288 288 286 290 289 285 278 278 282 289 290 290 288 287 286 284 283
298 290 306 314 296 296 290 294 298 299 301 300 300 297 296 294 291 289 290 293 297 295 291 293 289 283 286 290 290 289 289 291 285 283 283 281 285 289 288 290 289 288 287 285 284
294 295 305 308 289 290 293 293 296 295 297 298 297 298 298 295 291 293 292 297 297 295 292 294 286 283 281 288 289 287 288 292 292 287 283 283 285 288 288 288 288 287 286 285 283
293 287 293 299 298 293 290 290 292 298 296 298 297 299 296 294 296 293 294 296 297 297 298 297 288 283 283 284 287 283 286 288 289 285 285 286 289 291 286 287 287 287 287 285 283
293 288 289 288 289 293 293 292 290 290 296 298 295 296 295 291 293 293 294 292 295 296 296 296 287 288 289 289 286 284 284 286 285 288 285 288 288 292 293 289 289 289 287 285 282
288 286 292 289 289 288 289 287 289 291 293 292 292 294 295 291 291 288 294 294 293 292 292 294 288 288 287 288 289 287 289 288 289 289 289 290 289 296 292 292 288 288 287 285 283
294 296 289 288 286 286 286 288 288 291 294 293 293 292 293 295 297 298 299 298 296 294 289 288 287 285 283 287 285 283 287 287 289 291 291 286 291 296 291 290 288 287 288 286 285

GFSSW_sfc_thetae_090.txt.gz
Theta_e
320 320 320 320 320 321 322 322 322 323 323 324 324 325 326 326 324 317 307 313 316 326 320 307 305 304 304 302 302 297 289 287 288 289 292 295 294 297 298 297 297 298 297 299 303
319 319 319 319 319 320 321 321 322 322 323 323 323 324 325 325 314 309 320 326 328 325 307 302 300 300 298 299 299 294 288 290 291 291 292 295 295 297 295 294 294 296 299 301 302
319 319 318 318 319 319 320 321 322 322 323 323 323 324 325 321 307 306 326 327 328 320 309 304 303 301 295 296 296 293 289 292 294 295 297 296 294 296 294 292 295 296 298 299 300
320 319 319 319 319 320 320 321 321 322 322 322 323 324 323 312 292 310 325 327 327 311 307 303 301 295 293 292 296 289 295 295 298 298 296 295 296 294 295 296 298 298 299 298 298
320 320 319 319 319 320 320 321 321 322 322 322 324 324 312 299 302 313 323 321 311 307 303 301 297 295 291 292 294 291 294 296 297 298 296 297 296 295 295 295 297 298 299 298 297
320 320 319 319 320 320 321 321 321 322 321 322 324 322 305 293 313 314 314 310 307 304 301 300 298 298 295 294 292 294 295 296 297 297 297 296 294 296 294 295 296 297 296 296 297
321 320 320 320 320 321 321 321 321 321 321 322 323 315 303 299 312 312 309 306 306 304 301 302 301 297 296 293 296 295 292 294 295 295 295 296 293 293 295 295 294 295 294 295 296
321 320 320 320 320 321 321 322 322 321 322 323 323 310 298 310 310 309 308 305 306 306 305 304 303 300 296 296 295 290 290 287 293 295 295 295 289 295 295 294 293 293 292 293 294
320 320 320 320 320 320 321 321 321 322 322 323 310 305 299 313 309 311 307 304 304 304 303 307 302 297 295 290 288 289 285 286 291 294 293 292 290 294 293 293 292 291 291 292 292
321 320 320 320 320 320 321 322 321 319 318 317 312 299 303 301 306 309 306 306 302 300 299 298 295 291 289 288 283 285 285 287 289 293 291 289 290 292 293 293 293 291 291 291 292
321 320 321 320 321 321 318 313 306 304 307 300 301 300 302 303 306 305 306 303 302 298 293 294 290 288 291 291 291 290 288 288 290 294 291 290 291 294 293 291 291 291 290 291 292
321 321 321 321 322 322 315 308 308 306 300 306 306 304 304 304 298 302 305 299 297 292 294 290 287 293 295 293 291 290 287 287 291 293 291 290 289 292 292 292 294 294 293 292 290
317 319 321 321 322 319 314 313 312 309 302 306 306 304 304 303 299 299 302 299 295 292 292 289 293 296 294 291 290 289 288 287 289 292 290 288 288 289 293 293 294 296 296 294 292
314 315 319 321 316 316 313 319 318 313 297 297 303 305 302 303 298 304 304 300 295 292 292 291 295 294 292 291 292 287 292 291 290 287 283 288 283 287 291 292 292 296 292 292 291
312 313 315 320 315 312 317 319 316 312 285 299 300 306 303 302 299 298 302 298 293 293 294 291 291 291 290 291 293 289 292 290 288 286 283 284 282 285 289 289 293 294 291 290 290
311 311 312 316 317 315 318 317 314 295 284 293 297 296 296 298 295 296 297 299 297 293 291 291 293 293 293 292 293 293 290 288 285 284 279 285 285 285 288 292 291 292 291 290 289
310 311 310 313 310 317 317 311 292 285 298 293 292 294 293 293 292 292 291 291 290 286 285 289 290 291 293 290 291 290 287 280 279 277 279 284 282 288 291 292 292 294 290 287 289
309 310 309 312 314 317 313 300 283 289 292 299 295 293 291 293 291 291 288 287 290 288 286 286 284 290 292 292 288 287 288 281 275 276 278 283 280 286 291 291 291 292 289 287 287
308 304 308 311 314 313 303 289 288 291 296 296 295 290 289 292 292 289 287 287 290 290 287 285 286 290 291 292 293 286 284 291 283 272 276 281 285 291 290 290 289 287 285 285 285
299 299 301 311 314 308 296 290 293 297 301 298 290 293 288 291 290 289 287 291 291 293 293 290 285 288 289 292 291 289 292 284 284 276 276 279 280 285 288 289 289 286 283 283 283
297 293 301 312 313 299 287 289 294 300 299 297 295 294 293 291 292 289 290 292 294 292 296 293 290 286 288 286 287 287 285 287 288 284 276 276 281 288 290 289 289 287 285 283 282
294 287 302 312 294 295 287 289 295 297 300 298 299 298 295 293 291 290 290 292 296 295 290 293 289 281 284 288 290 288 287 289 284 281 284 280 284 289 289 288 289 288 286 283 283
292 290 300 306 287 288 290 291 293 293 295 297 297 298 299 295 290 292 293 296 296 294 292 294 286 279 280 286 288 287 288 291 289 285 280 281 284 287 287 288 288 287 284 283 281
292 284 289 295 296 291 289 289 289 295 294 296 295 298 296 294 296 292 293 296 297 296 298 297 287 285 284 284 288 285 285 288 289 282 285 286 289 290 287 288 288 285 284 283 282
288 287 287 286 287 290 291 291 289 288 294 295 293 293 292 289 291 291 294 293 294 297 296 295 288 283 284 286 287 285 287 285 286 288 286 288 287 292 294 291 289 288 286 283 281
286 286 290 282 287 289 288 288 288 290 291 290 291 293 293 291 292 290 292 293 293 293 294 294 288 287 287 285 286 285 287 287 287 289 288 289 289 296 296 292 290 288 286 284 282
288 290 289 286 283 281 284 287 287 290 292 293 291 291 291 294 295 297 298 297 296 292 292 290 289 287 284 287 287 283 288 289 289 291 290 286 291 296 294 293 294 293 287 286 285

GFSSW_sfc_thetae_093.txt.gz
Theta_e
319 319 319 319 320 320 321 321 322 322 322 323 324 324 325 325 323 315 305 312 314 324 320 305 303 302 302 300 299 294 288 285 287 289 291 293 293 295 295 296 295 296 297 298 306
319 319 319 319 319 320 320 321 321 322 322 322 323 324 324 325 312 307 320 327 327 324 304 300 298 299 297 297 297 293 287 289 291 290 291 293 293 295 293 293 292 294 297 300 302
319 319 319 319 319 320 320 321 321 322 322 322 323 324 324 320 304 304 326 327 327 319 306 303 301 299 294 295 294 290 288 291 291 294 295 294 293 294 293 291 294 295 297 299 301
320 319 318 319 319 320 320 321 322 322 322 322 323 324 323 310 289 307 325 326 326 310 305 301 299 294 292 291 294 291 293 293 296 296 294 293 294 293 293 295 296 297 298 298 301
320 319 319 319 319 320 321 321 322 322 322 322 323 323 310 296 300 310 322 320 309 305 301 299 295 294 290 291 293 292 292 295 295 296 294 296 295 294 294 294 295 296 298 298 299
320 320 319 319 319 320 321 321 322 322 322 322 324 322 305 292 310 311 311 307 305 302 299 299 296 296 293 292 290 292 293 294 295 295 295 294 292 294 294 294 295 296 296 296 297
320 320 320 320 320 320 321 321 322 322 322 322 323 314 301 297 310 311 308 304 304 302 299 300 299 295 294 292 295 293 291 293 294 294 294 295 292 292 294 294 294 294 294 295 296
321 320 320 320 320 320 321 321 322 322 322 323 324 308 298 308 309 307 306 304 304 304 303 302 301 299 295 295 294 290 289 287 291 293 293 294 288 294 294 293 293 292 292 293 294
320 319 320 320 320 320 321 321 321 322 322 322 309 303 297 312 307 310 305 303 302 302 302 305 300 295 294 290 287 287 283 285 290 293 292 290 290 292 292 292 292 291 291 292 292
321 320 320 320 320 320 320 322 321 319 317 317 311 299 302 300 304 308 305 304 301 299 298 297 293 290 288 288 282 283 284 286 287 290 290 288 290 292 292 291 292 291 290 291 292
321 321 321 321 321 321 317 313 306 303 306 300 300 299 301 302 305 304 304 302 300 297 292 292 289 287 290 290 289 288 286 286 288 292 289 290 290 294 293 291 290 291 290 291 293
319 321 321 321 322 322 315 308 307 305 300 306 305 303 304 303 298 302 304 298 295 291 292 289 286 292 293 291 290 288 286 287 290 292 291 290 289 291 291 291 294 294 293 293 291
315 317 320 321 322 319 314 312 312 311 303 305 305 303 304 302 298 298 301 298 293 291 290 288 291 294 293 290 288 287 286 286 288 290 289 287 287 288 292 292 294 295 297 294 292
313 314 316 321 315 316 313 317 319 314 298 299 302 304 301 302 297 303 303 299 294 292 291 290 294 292 290 290 291 286 291 290 288 286 283 287 283 286 290 291 291 295 294 291 290
311 312 313 315 314 311 315 318 317 313 285 298 301 306 302 300 299 297 301 297 292 292 292 290 290 291 289 290 292 289 291 289 287 284 282 281 281 284 288 289 293 293 292 290 291
310 311 311 314 316 315 318 317 313 294 284 293 296 295 295 296 294 295 297 298 297 293 291 290 292 293 292 291 293 292 289 287 285 283 280 283 284 285 286 290 291 292 292 290 288
310 310 308 310 307 317 318 310 290 282 297 292 291 294 292 291 290 291 291 291 290 286 286 287 289 290 292 289 289 289 287 280 278 277 279 282 282 289 290 291 291 292 289 287 287
308 309 307 309 312 316 312 300 283 290 291 298 294 293 290 292 290 290 288 287 290 288 285 286 284 290 291 290 288 287 288 282 275 275 278 283 280 286 290 291 291 289 287 286 286
307 302 305 309 311 314 302 288 288 291 294 295 295 291 290 292 292 287 286 287 290 290 288 284 285 289 290 291 293 287 284 289 282 271 276 281 284 290 291 291 291 287 285 285 285
297 296 298 310 312 308 295 288 291 296 299 296 291 292 289 291 290 288 288 290 290 292 292 289 284 287 288 291 290 289 291 284 282 274 273 279 280 285 288 289 290 288 285 284 284
294 291 297 310 311 298 286 287 292 299 299 296 293 293 291 291 292 289 290 291 292 292 295 292 288 285 287 286 286 286 284 286 287 282 276 275 281 287 289 290 290 290 288 284 283
293 285 300 311 292 293 287 288 294 294 298 297 298 297 294 293 291 290 291 293 296 294 290 293 290 283 284 288 291 287 286 287 285 280 283 280 284 290 289 289 289 290 288 283 283
288 290 298 303 286 286 287 289 292 290 292 295 294 296 298 294 290 293 291 295 296 294 291 293 288 282 284 287 288 287 287 290 288 285 280 278 284 287 286 288 289 288 285 283 281
286 281 288 295 295 289 287 287 287 293 292 293 292 296 293 291 296 292 293 296 296 296 298 297 288 286 283 285 288 285 285 288 289 281 284 285 289 288 288 288 289 287 286 283 282
286 282 285 282 284 288 291 290 288 287 293 292 290 291 290 287 288 291 294 294 295 296 296 295 286 285 286 286 286 288 289 287 286 289 284 288 287 292 294 291 292 290 287 283 281
286 281 285 284 286 288 286 284 286 288 290 290 289 290 291 290 291 287 291 291 292 293 293 294 288 288 287 286 285 285 286 288 287 288 289 290 288 296 293 293 290 291 288 284 282
293 290 288 282 277 280 282 286 286 287 291 292 290 289 288 290 290 291 294 295 294 292 291 290 287 286 284 289 285 282 287 286 286 289 288 285 290 295 293 292 294 295 290 287 286

GFSSW_sfc_thetae_099.txt.gz
Theta_e
320 319 319 319 319 319 320 320 321 321 321 322 323 323 324 324 323 314 302 310 312 326 318 304 303 302 303 301 300 296 290 287 289 290 293 295 296 297 298 298 299 301 302 305 313
319 319 318 318 318 319 320 320 321 321 321 322 322 323 324 323 309 305 318 326 327 325 303 300 298 300 298 298 297 292 288 289 291 292 293 295 295 297 297 296 297 299 301 304 317
319 319 318 318 318 319 320 320 321 321 321 322 322 324 324 317 298 301 325 327 324 317 305 302 301 299 296 296 295 292 289 291 292 294 295 295 295 296 295 294 297 298 299 302 316
320 319 318 318 318 319 320 320 321 321 321 322 323 324 323 307 287 305 324 325 324 307 303 300 298 295 293 292 295 290 292 292 296 296 295 294 295 294 294 297 299 298 300 302 310
320 319 319 318 318 319 320 320 321 321 322 323 323 323 307 293 296 308 322 319 306 303 300 298 295 294 291 292 294 292 292 294 295 295 294 295 295 295 295 296 298 297 299 302 305
319 319 319 318 319 319 320 320 321 322 322 323 324 321 299 289 307 308 306 304 302 301 299 298 296 296 293 292 291 292 293 294 295 295 295 294 293 294 295 296 297 296 297 300 304
320 319 319 319 319 320 320 320 321 322 322 322 323 311 298 295 308 309 305 302 302 301 299 299 298 296 295 292 294 293 291 293 293 293 294 295 292 293 295 295 295 296 296 297 299
320 319 319 319 320 320 320 321 321 321 322 322 322 305 294 305 307 304 303 302 303 302 302 301 300 298 296 295 293 290 289 287 290 293 293 294 288 294 294 294 295 295 295 295 297
320 319 319 320 319 320 320 321 321 322 322 322 306 300 294 311 305 307 303 301 300 301 301 302 299 294 294 289 286 286 282 285 288 292 292 292 290 293 294 293 294 294 294 294 295
320 319 320 320 320 320 320 321 321 318 315 313 308 297 299 297 303 305 302 302 299 298 298 297 293 289 288 287 281 283 284 284 285 289 290 289 290 293 293 293 294 294 294 294 295
320 320 321 320 321 321 317 311 305 302 303 299 297 295 299 301 304 302 302 300 298 296 290 291 288 286 289 288 286 285 285 284 286 291 289 289 289 293 293 292 292 294 295 295 295
318 319 320 321 322 322 315 307 306 304 299 305 303 302 302 302 297 301 302 297 294 290 290 288 285 291 291 290 289 286 285 284 288 290 290 289 288 292 293 293 296 297 297 297 295
314 315 316 320 321 319 312 311 311 308 301 304 304 303 303 301 298 298 300 296 292 289 289 286 289 291 291 288 287 286 285 285 286 289 288 287 286 288 292 294 295 295 298 296 294
312 312 313 318 315 316 313 316 317 313 295 297 301 304 300 301 296 301 301 298 292 290 289 289 291 291 288 287 289 284 289 288 287 286 282 286 282 287 291 293 293 295 294 294 293
311 310 311 315 314 311 315 318 317 312 283 295 299 305 300 299 296 296 300 297 291 291 291 288 289 289 288 288 290 287 289 288 287 285 283 282 283 285 288 290 293 296 294 293 292
309 309 310 312 314 315 317 315 310 294 284 292 295 294 294 295 293 295 296 297 295 292 290 288 290 291 291 290 291 291 288 287 284 283 279 283 284 285 287 291 292 291 292 292 291
308 309 306 308 307 316 316 307 289 284 295 290 291 292 292 290 289 291 291 290 289 285 285 287 288 290 291 288 289 288 287 281 279 277 279 282 282 289 290 291 292 293 292 292 290
307 306 305 306 311 315 311 295 282 289 290 296 294 293 290 290 288 288 288 287 290 288 284 284 282 288 291 291 288 286 287 282 275 275 279 283 279 286 291 292 292 291 290 290 288
304 298 299 305 307 313 299 286 287 288 293 293 294 292 291 292 292 289 287 286 289 290 287 284 284 288 289 290 293 286 283 288 283 278 277 282 286 289 291 292 290 290 288 289 288
295 294 295 304 307 305 292 287 289 294 295 295 290 294 290 291 291 289 289 290 290 292 294 290 284 286 287 290 289 288 290 283 282 276 274 281 282 285 288 291 292 292 289 289 287
293 286 293 303 306 297 287 285 290 297 298 295 293 292 292 289 291 289 289 291 291 291 295 293 289 285 287 285 285 286 285 286 286 283 277 276 284 287 291 291 292 291 291 290 288
291 281 294 309 289 292 287 288 293 293 296 294 294 295 293 293 290 289 287 292 295 293 290 293 289 285 286 288 291 289 286 290 285 280 281 280 286 289 290 290 291 291 291 289 288
285 286 295 304 282 284 287 287 290 290 292 292 291 293 295 292 289 293 292 296 295 293 290 293 287 283 284 287 288 287 286 289 288 286 285 281 286 287 287 288 289 290 288 287 286
284 278 285 293 292 284 285 286 285 290 290 291 291 292 291 290 292 288 291 294 295 295 297 297 288 286 283 283 286 283 287 288 289 284 285 285 289 290 287 288 289 289 289 287 285
284 280 282 279 286 289 288 286 285 284 289 290 287 288 287 285 286 287 290 290 293 295 295 294 284 286 288 288 287 284 284 285 286 288 285 288 288 292 293 291 291 290 289 287 285
284 281 283 283 284 284 287 284 285 287 288 287 285 287 289 285 286 283 287 287 287 290 291 294 285 285 285 289 288 287 289 289 288 288 289 290 289 296 293 295 293 291 291 289 286
293 289 283 280 279 279 280 283 283 285 285 288 288 286 285 288 292 292 291 291 290 289 288 286 285 284 280 284 285 282 287 288 290 291 289 286 291 296 295 291 294 294 294 291 290